Time,TemperatureF,DewpointF,PressureIn,WindDirection,WindDirectionDegrees,WindSpeedMPH,WindSpeedGustMPH,Humidity,HourlyPrecipIn,Conditions,Clouds,dailyrainin,SolarRadiationWatts/m^2,SoftwareType,DateUTC
2013-08-26 00:02:00,69.1,64.1,30.17,South,186,1.1,3.4,84,0.00,,,0.00,0.00,VWS V14.01,2013-08-26 05:02:00,
2013-08-26 00:03:00,69.1,64.1,30.17,South,186,3.4,3.4,84,0.00,,,0.00,0.00,VWS V14.01,2013-08-26 05:03:00,
2013-08-26 00:04:00,69.2,64.2,30.17,South,186,2.3,3.4,84,0.00,,,0.00,0.00,VWS V14.01,2013-08-26 05:04:00,
2013-08-26 00:05:00,69.2,64.2,30.17,South,186,0.0,3.4,84,0.00,,,0.00,0.00,VWS V14.01,2013-08-26 05:05:00,
2013-08-26 00:07:00,69.2,64.2,30.17,South,188,3.4,5.8,84,0.00,,,0.00,0.00,VWS V14.01,2013-08-26 05:07:00,
2013-08-26 00:08:00,69.2,63.8,30.17,South,187,0.0,6.9,83,0.00,,,0.00,0.00,VWS V14.01,2013-08-26 05:08:00,
2013-08-26 00:10:00,69.2,63.8,30.17,South,187,3.4,6.9,83,0.00,,,0.00,0.00,VWS V14.01,2013-08-26 05:10:00,
2013-08-26 00:11:00,69.2,63.8,30.17,South,187,0.0,0.0,83,0.00,,,0.00,0.00,VWS V14.01,2013-08-26 05:11:00,
2013-08-26 00:12:00,69.0,64.0,30.17,South,187,1.1,3.4,84,0.00,,,0.00,0.00,VWS V14.01,2013-08-26 05:12:00,
2013-08-26 00:14:00,68.9,63.9,30.17,South,187,1.1,3.4,84,0.00,,,0.00,0.00,VWS V14.01,2013-08-26 05:14:00,
2013-08-26 00:15:00,68.9,63.9,30.17,South,187,1.1,3.4,84,0.00,,,0.00,0.00,VWS V14.01,2013-08-26 05:15:00,
2013-08-26 00:16:00,68.8,63.8,30.17,South,171,2.3,5.8,84,0.00,,,0.00,0.00,VWS V14.01,2013-08-26 05:16:00,
2013-08-26 00:17:00,68.8,63.8,30.17,South,171,0.0,5.8,84,0.00,,,0.00,0.00,VWS V14.01,2013-08-26 05:17:00,
2013-08-26 00:18:00,68.8,63.8,30.17,South,171,0.0,5.8,84,0.00,,,0.00,0.00,VWS V14.01,2013-08-26 05:18:00,
2013-08-26 00:19:00,68.9,63.9,30.17,South,170,0.0,5.8,84,0.00,,,0.00,0.00,VWS V14.01,2013-08-26 05:19:00,
2013-08-26 00:20:00,68.9,63.5,30.17,South,170,0.0,0.0,83,0.00,,,0.00,0.00,VWS V14.01,2013-08-26 05:20:00,
2013-08-26 00:21:00,69.0,64.0,30.17,South,170,0.0,0.0,84,0.00,,,0.00,0.00,VWS V14.01,2013-08-26 05:21:00,
2013-08-26 00:23:00,69.0,64.0,30.17,South,186,3.4,3.4,84,0.00,,,0.00,0.00,VWS V14.01,2013-08-26 05:23:00,
2013-08-26 00:24:00,69.0,64.0,30.17,South,181,0.0,3.4,84,0.00,,,0.00,0.00,VWS V14.01,2013-08-26 05:24:00,
2013-08-26 00:25:00,69.0,63.6,30.17,South,180,3.4,3.4,83,0.00,,,0.00,0.00,VWS V14.01,2013-08-26 05:25:00,
2013-08-26 00:26:00,69.0,63.6,30.17,South,186,2.3,4.6,83,0.00,,,0.00,0.00,VWS V14.01,2013-08-26 05:26:00,
2013-08-26 00:27:00,68.9,63.9,30.17,SSW,197,4.6,5.8,84,0.00,,,0.00,0.00,VWS V14.01,2013-08-26 05:27:00,
2013-08-26 00:29:00,68.9,63.9,30.17,SSW,204,0.0,5.8,84,0.00,,,0.00,0.00,VWS V14.01,2013-08-26 05:29:00,
2013-08-26 00:32:00,68.8,63.8,30.17,SSW,205,1.1,2.3,84,0.00,,,0.00,0.00,VWS V14.01,2013-08-26 05:32:00,
2013-08-26 00:35:00,68.8,63.8,30.17,SSW,205,2.3,3.4,84,0.00,,,0.00,0.00,VWS V14.01,2013-08-26 05:35:00,
2013-08-26 00:36:00,68.8,63.8,30.17,SSW,205,3.4,3.4,84,0.00,,,0.00,0.00,VWS V14.01,2013-08-26 05:36:00,
2013-08-26 00:37:00,68.8,63.8,30.17,SSW,204,3.4,3.4,84,0.00,,,0.00,0.00,VWS V14.01,2013-08-26 05:37:00,
2013-08-26 00:38:00,68.8,63.8,30.17,SSW,204,2.3,4.6,84,0.00,,,0.00,0.00,VWS V14.01,2013-08-26 05:38:00,
2013-08-26 00:41:00,68.8,63.4,30.17,South,186,5.8,5.8,83,0.00,,,0.00,0.00,VWS V14.01,2013-08-26 05:41:00,
2013-08-26 00:42:00,68.8,63.4,30.17,South,186,0.0,5.8,83,0.00,,,0.00,0.00,VWS V14.01,2013-08-26 05:42:00,
2013-08-26 00:43:00,68.8,63.4,30.17,South,186,2.3,5.8,83,0.00,,,0.00,0.00,VWS V14.01,2013-08-26 05:43:00,
2013-08-26 00:44:00,68.8,63.4,30.17,South,186,0.0,5.8,83,0.00,,,0.00,0.00,VWS V14.01,2013-08-26 05:44:00,
2013-08-26 00:46:00,68.8,63.4,30.17,South,186,4.6,5.8,83,0.00,,,0.00,0.00,VWS V14.01,2013-08-26 05:46:00,
2013-08-26 00:47:00,68.8,63.4,30.17,SSW,195,1.1,5.8,83,0.00,,,0.00,0.00,VWS V14.01,2013-08-26 05:47:00,
2013-08-26 00:48:00,68.8,63.4,30.17,SSW,195,0.0,5.8,83,0.00,,,0.00,0.00,VWS V14.01,2013-08-26 05:48:00,
2013-08-26 00:49:00,68.8,63.4,30.17,SSW,197,0.0,5.8,83,0.00,,,0.00,0.00,VWS V14.01,2013-08-26 05:49:00,
2013-08-26 00:52:00,68.8,63.4,30.17,SSW,197,3.4,3.4,83,0.00,,,0.00,0.00,VWS V14.01,2013-08-26 05:52:00,
2013-08-26 00:53:00,68.8,63.4,30.17,SSW,197,1.1,3.4,83,0.00,,,0.00,0.00,VWS V14.01,2013-08-26 05:53:00,
2013-08-26 00:54:00,68.8,63.4,30.17,SSW,197,3.4,3.4,83,0.00,,,0.00,0.00,VWS V14.01,2013-08-26 05:54:00,
2013-08-26 00:57:00,68.6,63.2,30.17,SSW,196,3.4,5.8,83,0.00,,,0.00,0.00,VWS V14.01,2013-08-26 05:57:00,
2013-08-26 00:58:00,68.6,63.2,30.17,SSW,196,0.0,5.8,83,0.00,,,0.00,0.00,VWS V14.01,2013-08-26 05:58:00,
2013-08-26 00:59:00,68.6,63.2,30.17,SSW,196,0.0,5.8,83,0.00,,,0.00,0.00,VWS V14.01,2013-08-26 05:59:00,
2013-08-26 01:00:00,68.6,63.2,30.16,SSW,196,0.0,2.3,83,0.00,,,0.00,0.00,VWS V14.01,2013-08-26 06:00:00,
2013-08-26 01:03:00,68.6,63.2,30.16,SSW,196,2.3,2.3,83,0.00,,,0.00,0.00,VWS V14.01,2013-08-26 06:03:00,
2013-08-26 01:04:00,68.6,63.2,30.16,SSW,196,1.1,2.3,83,0.00,,,0.00,0.00,VWS V14.01,2013-08-26 06:04:00,
2013-08-26 01:05:00,68.6,63.2,30.16,SSW,196,2.3,3.4,83,0.00,,,0.00,0.00,VWS V14.01,2013-08-26 06:05:00,
2013-08-26 01:06:00,68.5,63.1,30.16,SSW,196,1.1,1.1,83,0.00,,,0.00,0.00,VWS V14.01,2013-08-26 06:06:00,
2013-08-26 01:09:00,68.4,63.0,30.16,SSW,196,0.0,3.4,83,0.00,,,0.00,0.00,VWS V14.01,2013-08-26 06:09:00,
2013-08-26 01:10:00,68.3,63.3,30.16,SSW,196,3.4,3.4,84,0.00,,,0.00,0.00,VWS V14.01,2013-08-26 06:10:00,
2013-08-26 01:11:00,68.2,63.2,30.16,SSW,196,0.0,0.0,84,0.00,,,0.00,0.00,VWS V14.01,2013-08-26 06:11:00,
2013-08-26 01:12:00,68.1,63.1,30.16,SSW,196,0.0,3.4,84,0.00,,,0.00,0.00,VWS V14.01,2013-08-26 06:12:00,
2013-08-26 01:14:00,67.9,62.9,30.16,SSW,196,0.0,3.4,84,0.00,,,0.00,0.00,VWS V14.01,2013-08-26 06:14:00,
2013-08-26 01:15:00,67.9,62.9,30.16,SSW,196,3.4,3.4,84,0.00,,,0.00,0.00,VWS V14.01,2013-08-26 06:15:00,
2013-08-26 01:16:00,67.9,62.9,30.16,SSW,196,0.0,3.4,84,0.00,,,0.00,0.00,VWS V14.01,2013-08-26 06:16:00,
2013-08-26 01:17:00,67.8,63.1,30.16,SSW,196,3.4,4.6,85,0.00,,,0.00,0.00,VWS V14.01,2013-08-26 06:17:00,
2013-08-26 01:19:00,67.7,63.0,30.16,SSW,196,0.0,4.6,85,0.00,,,0.00,0.00,VWS V14.01,2013-08-26 06:19:00,
2013-08-26 01:21:00,67.7,63.0,30.16,SSW,196,1.1,1.1,85,0.00,,,0.00,0.00,VWS V14.01,2013-08-26 06:21:00,
2013-08-26 01:22:00,67.8,62.8,30.16,SSW,196,2.3,4.6,84,0.00,,,0.00,0.00,VWS V14.01,2013-08-26 06:22:00,
2013-08-26 01:24:00,67.8,63.1,30.16,SSW,196,0.0,5.8,85,0.00,,,0.00,0.00,VWS V14.01,2013-08-26 06:24:00,
2013-08-26 01:27:00,67.6,62.9,30.16,SSW,196,3.4,3.4,85,0.00,,,0.00,0.00,VWS V14.01,2013-08-26 06:27:00,
2013-08-26 01:28:00,67.6,62.9,30.16,SSW,196,0.0,3.4,85,0.00,,,0.00,0.00,VWS V14.01,2013-08-26 06:28:00,
2013-08-26 01:31:00,67.5,62.8,30.15,SSW,196,1.1,2.3,85,0.00,,,0.00,0.00,VWS V14.01,2013-08-26 06:31:00,
2013-08-26 01:32:00,67.6,62.9,30.15,SSW,196,2.3,2.3,85,0.00,,,0.00,0.00,VWS V14.01,2013-08-26 06:32:00,
2013-08-26 01:33:00,67.6,62.9,30.15,SSW,196,1.1,2.3,85,0.00,,,0.00,0.00,VWS V14.01,2013-08-26 06:33:00,
2013-08-26 01:34:00,67.6,62.9,30.15,SSW,196,0.0,2.3,85,0.00,,,0.00,0.00,VWS V14.01,2013-08-26 06:34:00,
2013-08-26 01:37:00,67.8,63.1,30.15,SSW,192,3.4,6.9,85,0.00,,,0.00,0.00,VWS V14.01,2013-08-26 06:37:00,
2013-08-26 01:38:00,67.9,63.2,30.15,SSW,196,4.6,6.9,85,0.00,,,0.00,0.00,VWS V14.01,2013-08-26 06:38:00,
2013-08-26 01:39:00,68.0,63.0,30.15,SSW,197,1.1,6.9,84,0.00,,,0.00,0.00,VWS V14.01,2013-08-26 06:39:00,
2013-08-26 01:43:00,68.2,63.2,30.15,SSW,197,3.4,6.9,84,0.00,,,0.00,0.00,VWS V14.01,2013-08-26 06:43:00,
2013-08-26 01:45:00,68.3,63.3,30.15,SSW,200,2.3,6.9,84,0.00,,,0.00,0.00,VWS V14.01,2013-08-26 06:45:00,
2013-08-26 01:48:00,68.5,63.1,30.15,SSW,195,2.3,5.8,83,0.00,,,0.00,0.00,VWS V14.01,2013-08-26 06:48:00,
2013-08-26 01:50:00,68.6,63.2,30.15,SSW,195,2.3,5.8,83,0.00,,,0.00,0.00,VWS V14.01,2013-08-26 06:50:00,
2013-08-26 01:51:00,68.7,63.0,30.15,SSW,204,2.3,5.8,82,0.00,,,0.00,0.00,VWS V14.01,2013-08-26 06:51:00,
2013-08-26 01:53:00,68.7,63.0,30.15,SSW,194,4.6,5.8,82,0.00,,,0.00,0.00,VWS V14.01,2013-08-26 06:53:00,
2013-08-26 01:54:00,68.7,63.0,30.15,SSW,211,1.1,5.8,82,0.00,,,0.00,0.00,VWS V14.01,2013-08-26 06:54:00,
2013-08-26 01:56:00,68.6,62.9,30.15,SSW,202,2.3,6.9,82,0.00,,,0.00,0.00,VWS V14.01,2013-08-26 06:56:00,
2013-08-26 01:59:00,68.7,63.0,30.15,SSW,202,1.1,6.9,82,0.00,,,0.00,0.00,VWS V14.01,2013-08-26 06:59:00,
2013-08-26 02:01:00,68.7,63.0,30.14,South,180,0.0,6.9,82,0.00,,,0.00,0.00,VWS V14.01,2013-08-26 07:01:00,
2013-08-26 02:02:00,68.6,62.9,30.14,SW,222,3.4,6.9,82,0.00,,,0.00,0.00,VWS V14.01,2013-08-26 07:02:00,
2013-08-26 02:04:00,68.7,63.0,30.14,South,173,1.1,8.1,82,0.00,,,0.00,0.00,VWS V14.01,2013-08-26 07:04:00,
2013-08-26 02:06:00,68.8,63.1,30.14,SSW,208,5.8,6.9,82,0.00,,,0.00,0.00,VWS V14.01,2013-08-26 07:06:00,
2013-08-26 02:07:00,68.8,63.1,30.15,SSW,209,3.4,6.9,82,0.00,,,0.00,0.00,VWS V14.01,2013-08-26 07:07:00,
2013-08-26 02:09:00,68.8,63.1,30.15,South,174,3.4,8.1,82,0.00,,,0.00,0.00,VWS V14.01,2013-08-26 07:09:00,
2013-08-26 02:11:00,68.9,63.2,30.14,SW,225,1.1,8.1,82,0.00,,,0.00,0.00,VWS V14.01,2013-08-26 07:11:00,
2013-08-26 02:12:00,68.9,63.2,30.14,SSW,202,4.6,8.1,82,0.00,,,0.00,0.00,VWS V14.01,2013-08-26 07:12:00,
2013-08-26 02:15:00,68.9,63.2,30.14,SSW,207,6.9,8.1,82,0.00,,,0.00,0.00,VWS V14.01,2013-08-26 07:15:00,
2013-08-26 02:17:00,68.9,63.2,30.14,SSW,212,2.3,8.1,82,0.00,,,0.00,0.00,VWS V14.01,2013-08-26 07:17:00,
2013-08-26 02:18:00,68.9,63.2,30.14,South,186,3.4,9.2,82,0.00,,,0.00,0.00,VWS V14.01,2013-08-26 07:18:00,
2013-08-26 02:20:00,68.9,63.2,30.14,SSW,193,3.4,9.2,82,0.00,,,0.00,0.00,VWS V14.01,2013-08-26 07:20:00,
2013-08-26 02:22:00,68.8,63.1,30.14,SW,215,6.9,6.9,82,0.00,,,0.00,0.00,VWS V14.01,2013-08-26 07:22:00,
2013-08-26 02:23:00,68.8,63.1,30.15,SSW,213,3.4,6.9,82,0.00,,,0.00,0.00,VWS V14.01,2013-08-26 07:23:00,
2013-08-26 02:25:00,68.8,63.1,30.15,SSW,198,3.4,5.8,82,0.00,,,0.00,0.00,VWS V14.01,2013-08-26 07:25:00,
2013-08-26 02:26:00,68.8,63.1,30.15,SW,223,2.3,5.8,82,0.00,,,0.00,0.00,VWS V14.01,2013-08-26 07:26:00,
2013-08-26 02:28:00,68.8,63.1,30.15,SSW,208,3.4,8.1,82,0.00,,,0.00,0.00,VWS V14.01,2013-08-26 07:28:00,
2013-08-26 02:29:00,68.8,63.1,30.14,SW,215,2.3,8.1,82,0.00,,,0.00,0.00,VWS V14.01,2013-08-26 07:29:00,
2013-08-26 02:30:00,68.8,63.1,30.15,SSW,206,0.0,3.4,82,0.00,,,0.00,0.00,VWS V14.01,2013-08-26 07:30:00,
2013-08-26 02:31:00,68.8,63.1,30.15,South,190,1.1,6.9,82,0.00,,,0.00,0.00,VWS V14.01,2013-08-26 07:31:00,
2013-08-26 02:34:00,68.8,63.1,30.15,South,174,6.9,8.1,82,0.00,,,0.00,0.00,VWS V14.01,2013-08-26 07:34:00,
2013-08-26 02:35:00,68.8,63.1,30.15,SSW,206,6.9,9.2,82,0.00,,,0.00,0.00,VWS V14.01,2013-08-26 07:35:00,
2013-08-26 02:37:00,68.8,63.4,30.14,South,190,5.8,8.1,83,0.00,,,0.00,0.00,VWS V14.01,2013-08-26 07:37:00,
2013-08-26 02:39:00,68.6,63.2,30.14,SSW,199,1.1,8.1,83,0.00,,,0.00,0.00,VWS V14.01,2013-08-26 07:39:00,
2013-08-26 02:40:00,68.6,63.2,30.14,SSW,212,6.9,8.1,83,0.00,,,0.00,0.00,VWS V14.01,2013-08-26 07:40:00,
2013-08-26 02:43:00,68.8,63.4,30.14,SSW,200,4.6,6.9,83,0.00,,,0.00,0.00,VWS V14.01,2013-08-26 07:43:00,
2013-08-26 02:44:00,68.9,63.5,30.14,SW,218,5.8,6.9,83,0.00,,,0.00,0.00,VWS V14.01,2013-08-26 07:44:00,
2013-08-26 02:45:00,68.9,63.5,30.14,SSW,211,3.4,6.9,83,0.00,,,0.00,0.00,VWS V14.01,2013-08-26 07:45:00,
2013-08-26 02:46:00,68.8,63.4,30.15,SSW,197,3.4,6.9,83,0.00,,,0.00,0.00,VWS V14.01,2013-08-26 07:46:00,
2013-08-26 02:49:00,68.6,63.2,30.15,SSW,196,4.6,8.1,83,0.00,,,0.00,0.00,VWS V14.01,2013-08-26 07:49:00,
2013-08-26 02:50:00,68.5,63.1,30.15,South,190,9.2,9.2,83,0.00,,,0.00,0.00,VWS V14.01,2013-08-26 07:50:00,
2013-08-26 02:51:00,68.5,63.1,30.15,SSW,196,2.3,6.9,83,0.00,,,0.00,0.00,VWS V14.01,2013-08-26 07:51:00,
2013-08-26 02:52:00,68.5,63.1,30.15,SSW,202,6.9,6.9,83,0.00,,,0.00,0.00,VWS V14.01,2013-08-26 07:52:00,
2013-08-26 02:54:00,68.6,63.2,30.15,SSW,200,2.3,8.1,83,0.00,,,0.00,0.00,VWS V14.01,2013-08-26 07:54:00,
2013-08-26 02:55:00,68.6,63.2,30.15,SSW,203,1.1,5.8,83,0.00,,,0.00,0.00,VWS V14.01,2013-08-26 07:55:00,
2013-08-26 02:56:00,68.6,63.2,30.15,SW,226,2.3,5.8,83,0.00,,,0.00,0.00,VWS V14.01,2013-08-26 07:56:00,
2013-08-26 02:57:00,68.6,63.2,30.15,SW,232,5.8,5.8,83,0.00,,,0.00,0.00,VWS V14.01,2013-08-26 07:57:00,
2013-08-26 02:59:00,68.5,63.1,30.15,SW,218,1.1,5.8,83,0.00,,,0.00,0.00,VWS V14.01,2013-08-26 07:59:00,
2013-08-26 03:01:00,68.5,63.1,30.15,SSW,212,2.3,3.4,83,0.00,,,0.00,0.00,VWS V14.01,2013-08-26 08:01:00,
2013-08-26 03:02:00,68.5,63.1,30.15,SSW,202,4.6,6.9,83,0.00,,,0.00,0.00,VWS V14.01,2013-08-26 08:02:00,
2013-08-26 03:03:00,68.4,63.4,30.15,SSW,201,2.3,6.9,84,0.00,,,0.00,0.00,VWS V14.01,2013-08-26 08:03:00,
2013-08-26 03:04:00,68.3,63.3,30.15,South,180,3.4,6.9,84,0.00,,,0.00,0.00,VWS V14.01,2013-08-26 08:04:00,
2013-08-26 03:07:00,68.2,63.2,30.15,SSW,206,6.9,8.1,84,0.00,,,0.00,0.00,VWS V14.01,2013-08-26 08:07:00,
2013-08-26 03:08:00,68.2,63.2,30.15,WSW,237,4.6,8.1,84,0.00,,,0.00,0.00,VWS V14.01,2013-08-26 08:08:00,
2013-08-26 03:10:00,68.1,63.1,30.15,South,186,3.4,8.1,84,0.00,,,0.00,0.00,VWS V14.01,2013-08-26 08:10:00,
2013-08-26 03:13:00,68.1,63.1,30.15,South,187,4.6,6.9,84,0.00,,,0.00,0.00,VWS V14.01,2013-08-26 08:13:00,
2013-08-26 03:14:00,68.1,63.1,30.15,SSW,208,2.3,6.9,84,0.00,,,0.00,0.00,VWS V14.01,2013-08-26 08:14:00,
2013-08-26 03:15:00,68.1,63.1,30.15,SSW,213,6.9,6.9,84,0.00,,,0.00,0.00,VWS V14.01,2013-08-26 08:15:00,
2013-08-26 03:18:00,68.1,63.1,30.15,SW,217,4.6,6.9,84,0.00,,,0.00,0.00,VWS V14.01,2013-08-26 08:18:00,
2013-08-26 03:19:00,68.1,63.1,30.15,SSW,207,4.6,6.9,84,0.00,,,0.00,0.00,VWS V14.01,2013-08-26 08:19:00,
2013-08-26 03:20:00,68.1,63.1,30.15,South,190,2.3,6.9,84,0.00,,,0.00,0.00,VWS V14.01,2013-08-26 08:20:00,
2013-08-26 03:21:00,68.1,63.1,30.15,South,179,4.6,5.8,84,0.00,,,0.00,0.00,VWS V14.01,2013-08-26 08:21:00,
2013-08-26 03:24:00,68.1,63.1,30.15,SSW,206,1.1,5.8,84,0.00,,,0.00,0.00,VWS V14.01,2013-08-26 08:24:00,
2013-08-26 03:25:00,68.0,63.0,30.15,WSW,248,0.0,5.8,84,0.00,,,0.00,0.00,VWS V14.01,2013-08-26 08:25:00,
2013-08-26 03:26:00,68.0,63.0,30.15,SSW,213,2.3,4.6,84,0.00,,,0.00,0.00,VWS V14.01,2013-08-26 08:26:00,
2013-08-26 03:27:00,68.0,63.0,30.15,SSW,205,1.1,4.6,84,0.00,,,0.00,0.00,VWS V14.01,2013-08-26 08:27:00,
2013-08-26 03:29:00,67.9,62.9,30.15,SSW,205,1.1,5.8,84,0.00,,,0.00,0.00,VWS V14.01,2013-08-26 08:29:00,
2013-08-26 03:31:00,67.9,62.9,30.15,South,191,3.4,5.8,84,0.00,,,0.00,0.00,VWS V14.01,2013-08-26 08:31:00,
2013-08-26 03:32:00,67.9,62.9,30.15,SSW,202,1.1,5.8,84,0.00,,,0.00,0.00,VWS V14.01,2013-08-26 08:32:00,
2013-08-26 03:35:00,67.7,62.7,30.15,SSW,209,3.4,5.8,84,0.00,,,0.00,0.00,VWS V14.01,2013-08-26 08:35:00,
2013-08-26 03:36:00,67.7,63.0,30.15,SSW,213,1.1,4.6,85,0.00,,,0.00,0.00,VWS V14.01,2013-08-26 08:36:00,
2013-08-26 03:37:00,67.6,62.9,30.15,SSW,213,0.0,4.6,85,0.00,,,0.00,0.00,VWS V14.01,2013-08-26 08:37:00,
2013-08-26 03:40:00,67.5,62.8,30.15,SSW,205,0.0,4.6,85,0.00,,,0.00,0.00,VWS V14.01,2013-08-26 08:40:00,
2013-08-26 03:42:00,67.4,62.7,30.15,SSW,204,1.1,4.6,85,0.00,,,0.00,0.00,VWS V14.01,2013-08-26 08:42:00,
2013-08-26 03:43:00,67.4,62.7,30.15,SSW,204,1.1,4.6,85,0.00,,,0.00,0.00,VWS V14.01,2013-08-26 08:43:00,
2013-08-26 03:44:00,67.4,62.7,30.15,SSW,212,2.3,4.6,85,0.00,,,0.00,0.00,VWS V14.01,2013-08-26 08:44:00,
2013-08-26 03:46:00,67.4,62.7,30.15,SW,216,4.6,6.9,85,0.00,,,0.00,0.00,VWS V14.01,2013-08-26 08:46:00,
2013-08-26 03:48:00,67.3,62.6,30.15,SSW,209,2.3,8.1,85,0.00,,,0.00,0.00,VWS V14.01,2013-08-26 08:48:00,
2013-08-26 03:50:00,67.3,62.6,30.15,SSW,205,0.0,8.1,85,0.00,,,0.00,0.00,VWS V14.01,2013-08-26 08:50:00,
2013-08-26 03:51:00,67.3,62.6,30.15,SSW,208,6.9,6.9,85,0.00,,,0.00,0.00,VWS V14.01,2013-08-26 08:51:00,
2013-08-26 03:53:00,67.3,62.6,30.15,SW,221,3.4,6.9,85,0.00,,,0.00,0.00,VWS V14.01,2013-08-26 08:53:00,
2013-08-26 03:54:00,67.2,62.5,30.15,SW,224,3.4,6.9,85,0.00,,,0.00,0.00,VWS V14.01,2013-08-26 08:54:00,
2013-08-26 03:56:00,67.2,62.5,30.15,SW,218,2.3,3.4,85,0.00,,,0.00,0.00,VWS V14.01,2013-08-26 08:56:00,
2013-08-26 03:57:00,67.1,62.5,30.15,SW,216,1.1,3.4,85,0.00,,,0.00,0.00,VWS V14.01,2013-08-26 08:57:00,
2013-08-26 03:58:00,67.2,62.5,30.15,SW,216,0.0,3.4,85,0.00,,,0.00,0.00,VWS V14.01,2013-08-26 08:58:00,
2013-08-26 03:59:00,67.1,62.5,30.15,SSW,211,0.0,4.6,85,0.00,,,0.00,0.00,VWS V14.01,2013-08-26 08:59:00,
2013-08-26 04:00:00,67.1,62.5,30.15,SSW,211,2.3,4.6,85,0.00,,,0.00,0.00,VWS V14.01,2013-08-26 09:00:00,
2013-08-26 04:01:00,67.1,62.5,30.15,WSW,240,2.3,5.8,85,0.00,,,0.00,0.00,VWS V14.01,2013-08-26 09:01:00,
2013-08-26 04:03:00,67.1,62.5,30.15,SW,216,4.6,5.8,85,0.00,,,0.00,0.00,VWS V14.01,2013-08-26 09:03:00,
2013-08-26 04:04:00,67.1,62.5,30.15,SW,226,1.1,5.8,85,0.00,,,0.00,0.00,VWS V14.01,2013-08-26 09:04:00,
2013-08-26 04:05:00,67.0,62.3,30.15,SW,226,1.1,5.8,85,0.00,,,0.00,0.00,VWS V14.01,2013-08-26 09:05:00,
2013-08-26 04:06:00,67.0,62.3,30.15,SW,227,3.4,3.4,85,0.00,,,0.00,0.00,VWS V14.01,2013-08-26 09:06:00,
2013-08-26 04:08:00,67.0,62.3,30.15,SW,231,2.3,4.6,85,0.00,,,0.00,0.00,VWS V14.01,2013-08-26 09:08:00,
2013-08-26 04:09:00,67.0,62.3,30.15,SW,227,0.0,4.6,85,0.00,,,0.00,0.00,VWS V14.01,2013-08-26 09:09:00,
2013-08-26 04:11:00,67.0,62.3,30.14,SW,220,0.0,3.4,85,0.00,,,0.00,0.00,VWS V14.01,2013-08-26 09:11:00,
2013-08-26 04:12:00,66.9,62.2,30.15,SW,220,2.3,4.6,85,0.00,,,0.00,0.00,VWS V14.01,2013-08-26 09:12:00,
2013-08-26 04:13:00,66.9,62.2,30.15,SW,214,0.0,4.6,85,0.00,,,0.00,0.00,VWS V14.01,2013-08-26 09:13:00,
2013-08-26 04:15:00,66.7,62.0,30.14,SW,214,0.0,4.6,85,0.00,,,0.00,0.00,VWS V14.01,2013-08-26 09:15:00,
2013-08-26 04:16:00,66.6,62.0,30.15,SSW,211,1.1,2.3,85,0.00,,,0.00,0.00,VWS V14.01,2013-08-26 09:16:00,
2013-08-26 04:18:00,66.7,62.4,30.14,SSW,210,1.1,3.4,86,0.00,,,0.00,0.00,VWS V14.01,2013-08-26 09:18:00,
2013-08-26 04:19:00,66.7,62.4,30.14,SW,214,4.6,4.6,86,0.00,,,0.00,0.00,VWS V14.01,2013-08-26 09:19:00,
2013-08-26 04:20:00,66.7,62.0,30.15,SSW,213,0.0,3.4,85,0.00,,,0.00,0.00,VWS V14.01,2013-08-26 09:20:00,
2013-08-26 04:22:00,66.7,62.0,30.15,SSW,212,2.3,4.6,85,0.00,,,0.00,0.00,VWS V14.01,2013-08-26 09:22:00,
2013-08-26 04:24:00,66.7,62.0,30.14,SSW,211,1.1,5.8,85,0.00,,,0.00,0.00,VWS V14.01,2013-08-26 09:24:00,
2013-08-26 04:25:00,66.7,62.0,30.14,SSW,213,2.3,5.8,85,0.00,,,0.00,0.00,VWS V14.01,2013-08-26 09:25:00,
2013-08-26 04:26:00,66.8,62.2,30.14,SSW,212,2.3,2.3,85,0.00,,,0.00,0.00,VWS V14.01,2013-08-26 09:26:00,
2013-08-26 04:27:00,66.8,62.2,30.14,SSW,212,0.0,2.3,85,0.00,,,0.00,0.00,VWS V14.01,2013-08-26 09:27:00,
2013-08-26 04:29:00,66.7,62.0,30.14,SSW,211,2.3,5.8,85,0.00,,,0.00,0.00,VWS V14.01,2013-08-26 09:29:00,
2013-08-26 04:30:00,66.7,62.4,30.14,SSW,211,3.4,5.8,86,0.00,,,0.00,0.00,VWS V14.01,2013-08-26 09:30:00,
2013-08-26 04:31:00,66.6,62.3,30.14,SSW,211,0.0,5.8,86,0.00,,,0.00,0.00,VWS V14.01,2013-08-26 09:31:00,
2013-08-26 04:32:00,66.6,62.3,30.14,SSW,210,2.3,5.8,86,0.00,,,0.00,0.00,VWS V14.01,2013-08-26 09:32:00,
2013-08-26 04:34:00,66.6,62.3,30.14,SSW,197,5.8,5.8,86,0.00,,,0.00,0.00,VWS V14.01,2013-08-26 09:34:00,
2013-08-26 04:35:00,66.6,62.3,30.14,SSW,198,3.4,5.8,86,0.00,,,0.00,0.00,VWS V14.01,2013-08-26 09:35:00,
2013-08-26 04:36:00,66.6,62.3,30.14,SSW,200,4.6,4.6,86,0.00,,,0.00,0.00,VWS V14.01,2013-08-26 09:36:00,
2013-08-26 04:37:00,66.6,62.3,30.14,SSW,200,1.1,4.6,86,0.00,,,0.00,0.00,VWS V14.01,2013-08-26 09:37:00,
2013-08-26 04:40:00,66.5,62.2,30.14,SSW,200,1.1,4.6,86,0.00,,,0.00,0.00,VWS V14.01,2013-08-26 09:40:00,
2013-08-26 04:42:00,66.4,62.1,30.14,SSW,200,1.1,4.6,86,0.00,,,0.00,0.00,VWS V14.01,2013-08-26 09:42:00,
2013-08-26 04:44:00,66.3,62.0,30.14,SSW,200,1.1,4.6,86,0.00,,,0.00,0.00,VWS V14.01,2013-08-26 09:44:00,
2013-08-26 04:45:00,66.3,62.0,30.14,SSW,200,1.1,4.6,86,0.00,,,0.00,0.00,VWS V14.01,2013-08-26 09:45:00,
2013-08-26 04:46:00,66.3,62.0,30.14,SSW,200,3.4,3.4,86,0.00,,,0.00,0.00,VWS V14.01,2013-08-26 09:46:00,
2013-08-26 04:47:00,66.2,61.9,30.14,SSW,200,0.0,3.4,86,0.00,,,0.00,0.00,VWS V14.01,2013-08-26 09:47:00,
2013-08-26 04:50:00,66.0,62.0,30.14,SSW,200,1.1,4.6,87,0.00,,,0.00,0.00,VWS V14.01,2013-08-26 09:50:00,
2013-08-26 04:52:00,65.9,61.9,30.14,SSW,200,2.3,3.4,87,0.00,,,0.00,0.00,VWS V14.01,2013-08-26 09:52:00,
2013-08-26 04:54:00,65.8,61.8,30.14,SSW,200,0.0,4.6,87,0.00,,,0.00,0.00,VWS V14.01,2013-08-26 09:54:00,
2013-08-26 04:55:00,65.8,61.8,30.14,SSW,200,2.3,2.3,87,0.00,,,0.00,0.00,VWS V14.01,2013-08-26 09:55:00,
2013-08-26 04:56:00,65.8,61.8,30.14,SSW,200,4.6,4.6,87,0.00,,,0.00,0.00,VWS V14.01,2013-08-26 09:56:00,
2013-08-26 04:58:00,65.6,61.6,30.14,SSW,200,1.1,4.6,87,0.00,,,0.00,0.00,VWS V14.01,2013-08-26 09:58:00,
2013-08-26 04:59:00,65.4,61.8,30.14,SSW,200,0.0,4.6,88,0.00,,,0.00,0.00,VWS V14.01,2013-08-26 09:59:00,
2013-08-26 05:01:00,65.4,61.8,30.14,SSW,200,3.4,4.6,88,0.00,,,0.00,0.00,VWS V14.01,2013-08-26 10:01:00,
2013-08-26 05:02:00,65.4,61.8,30.14,SSW,200,3.4,4.6,88,0.00,,,0.00,0.00,VWS V14.01,2013-08-26 10:02:00,
2013-08-26 05:03:00,65.5,61.9,30.14,SSW,200,1.1,4.6,88,0.00,,,0.00,0.00,VWS V14.01,2013-08-26 10:03:00,
2013-08-26 05:05:00,65.6,62.0,30.14,SSW,201,0.0,2.3,88,0.00,,,0.00,0.00,VWS V14.01,2013-08-26 10:05:00,
2013-08-26 05:06:00,65.6,62.0,30.14,SSW,201,1.1,3.4,88,0.00,,,0.00,0.00,VWS V14.01,2013-08-26 10:06:00,
2013-08-26 05:07:00,65.6,62.0,30.14,SSW,201,2.3,3.4,88,0.00,,,0.00,0.00,VWS V14.01,2013-08-26 10:07:00,
2013-08-26 05:08:00,65.7,61.7,30.14,SSW,201,0.0,3.4,87,0.00,,,0.00,0.00,VWS V14.01,2013-08-26 10:08:00,
2013-08-26 05:10:00,65.6,62.0,30.14,SSW,201,1.1,3.4,88,0.00,,,0.00,0.00,VWS V14.01,2013-08-26 10:10:00,
2013-08-26 05:12:00,65.6,62.0,30.14,SSW,202,3.4,5.8,88,0.00,,,0.00,0.00,VWS V14.01,2013-08-26 10:12:00,
2013-08-26 05:13:00,65.6,61.6,30.14,SSW,202,2.3,5.8,87,0.00,,,0.00,0.00,VWS V14.01,2013-08-26 10:13:00,
2013-08-26 05:14:00,65.6,61.6,30.14,SSW,202,3.4,5.8,87,0.00,,,0.00,0.00,VWS V14.01,2013-08-26 10:14:00,
2013-08-26 05:15:00,65.7,61.7,30.14,SSW,202,4.6,5.8,87,0.00,,,0.00,0.00,VWS V14.01,2013-08-26 10:15:00,
2013-08-26 05:16:00,65.8,61.8,30.14,SSW,202,2.3,2.3,87,0.00,,,0.00,0.00,VWS V14.01,2013-08-26 10:16:00,
2013-08-26 05:17:00,65.9,61.9,30.14,SSW,201,1.1,6.9,87,0.00,,,0.00,0.00,VWS V14.01,2013-08-26 10:17:00,
2013-08-26 05:19:00,65.9,61.9,30.14,SSW,201,0.0,6.9,87,0.00,,,0.00,0.00,VWS V14.01,2013-08-26 10:19:00,
2013-08-26 05:21:00,65.8,61.8,30.14,SSW,201,0.0,2.3,87,0.00,,,0.00,0.00,VWS V14.01,2013-08-26 10:21:00,
2013-08-26 05:22:00,65.8,61.8,30.14,SSW,201,1.1,3.4,87,0.00,,,0.00,0.00,VWS V14.01,2013-08-26 10:22:00,
2013-08-26 05:24:00,65.7,61.7,30.14,SSW,201,0.0,3.4,87,0.00,,,0.00,0.00,VWS V14.01,2013-08-26 10:24:00,
2013-08-26 05:27:00,65.5,61.5,30.14,SSW,201,0.0,2.3,87,0.00,,,0.00,0.00,VWS V14.01,2013-08-26 10:27:00,
2013-08-26 05:29:00,65.4,61.4,30.14,SSW,201,0.0,2.3,87,0.00,,,0.00,0.00,VWS V14.01,2013-08-26 10:29:00,
2013-08-26 05:31:00,65.3,61.7,30.14,SSW,201,1.1,1.1,88,0.00,,,0.00,0.00,VWS V14.01,2013-08-26 10:31:00,
2013-08-26 05:32:00,65.3,61.7,30.14,SSW,201,1.1,1.1,88,0.00,,,0.00,0.00,VWS V14.01,2013-08-26 10:32:00,
2013-08-26 05:35:00,65.2,61.6,30.14,SSW,201,1.1,2.3,88,0.00,,,0.00,0.00,VWS V14.01,2013-08-26 10:35:00,
2013-08-26 05:36:00,65.2,61.6,30.14,SSW,201,0.0,1.1,88,0.00,,,0.00,0.00,VWS V14.01,2013-08-26 10:36:00,
2013-08-26 05:37:00,65.1,61.5,30.14,SSW,201,1.1,2.3,88,0.00,,,0.00,0.00,VWS V14.01,2013-08-26 10:37:00,
2013-08-26 05:40:00,65.0,61.4,30.15,SSW,201,0.0,2.3,88,0.00,,,0.00,0.00,VWS V14.01,2013-08-26 10:40:00,
2013-08-26 05:41:00,65.1,61.5,30.15,SSW,201,0.0,1.1,88,0.00,,,0.00,0.00,VWS V14.01,2013-08-26 10:41:00,
2013-08-26 05:43:00,65.1,61.5,30.15,SSW,201,0.0,1.1,88,0.00,,,0.00,0.00,VWS V14.01,2013-08-26 10:43:00,
2013-08-26 05:45:00,65.0,61.4,30.15,SSW,201,1.1,1.1,88,0.00,,,0.00,0.00,VWS V14.01,2013-08-26 10:45:00,
2013-08-26 05:46:00,64.9,61.3,30.15,SSW,201,1.1,1.1,88,0.00,,,0.00,0.00,VWS V14.01,2013-08-26 10:46:00,
2013-08-26 05:47:00,64.8,61.2,30.15,SSW,201,0.0,1.1,88,0.00,,,0.00,0.00,VWS V14.01,2013-08-26 10:47:00,
2013-08-26 05:49:00,64.8,61.2,30.15,SSW,201,0.0,1.1,88,0.00,,,0.00,0.00,VWS V14.01,2013-08-26 10:49:00,
2013-08-26 05:51:00,64.6,61.3,30.15,SSW,201,0.0,0.0,89,0.00,,,0.00,0.00,VWS V14.01,2013-08-26 10:51:00,
2013-08-26 05:52:00,64.6,61.3,30.15,SSW,201,0.0,0.0,89,0.00,,,0.00,0.00,VWS V14.01,2013-08-26 10:52:00,
2013-08-26 05:53:00,64.5,61.2,30.15,SSW,201,0.0,0.0,89,0.00,,,0.00,0.00,VWS V14.01,2013-08-26 10:53:00,
2013-08-26 05:55:00,64.3,61.0,30.15,SSW,201,0.0,0.0,89,0.00,,,0.00,0.00,VWS V14.01,2013-08-26 10:55:00,
2013-08-26 05:56:00,64.3,61.0,30.15,SSW,201,0.0,0.0,89,0.00,,,0.00,0.00,VWS V14.01,2013-08-26 10:56:00,
2013-08-26 05:57:00,64.2,60.9,30.15,SSW,201,0.0,1.1,89,0.00,,,0.00,0.00,VWS V14.01,2013-08-26 10:57:00,
2013-08-26 05:58:00,64.1,60.8,30.14,SSW,201,0.0,1.1,89,0.00,,,0.00,0.00,VWS V14.01,2013-08-26 10:58:00,
2013-08-26 06:01:00,64.0,61.0,30.14,SSW,201,0.0,0.0,90,0.00,,,0.00,0.00,VWS V14.01,2013-08-26 11:01:00,
2013-08-26 06:02:00,64.0,61.0,30.14,SSW,201,0.0,0.0,90,0.00,,,0.00,0.00,VWS V14.01,2013-08-26 11:02:00,
2013-08-26 06:04:00,63.9,60.9,30.14,SSW,201,0.0,0.0,90,0.00,,,0.00,0.00,VWS V14.01,2013-08-26 11:04:00,
2013-08-26 06:06:00,63.8,60.8,30.15,SSW,201,0.0,1.1,90,0.00,,,0.00,0.00,VWS V14.01,2013-08-26 11:06:00,
2013-08-26 06:07:00,63.8,60.8,30.14,SSW,201,0.0,1.1,90,0.00,,,0.00,0.00,VWS V14.01,2013-08-26 11:07:00,
2013-08-26 06:09:00,63.8,60.8,30.14,SSW,201,0.0,1.1,90,0.00,,,0.00,0.00,VWS V14.01,2013-08-26 11:09:00,
2013-08-26 06:11:00,63.7,60.7,30.14,SSW,201,2.3,2.3,90,0.00,,,0.00,0.00,VWS V14.01,2013-08-26 11:11:00,
2013-08-26 06:12:00,63.7,60.7,30.14,SSW,201,0.0,2.3,90,0.00,,,0.00,0.00,VWS V14.01,2013-08-26 11:12:00,
2013-08-26 06:14:00,63.6,60.6,30.14,SSW,201,2.3,2.3,90,0.00,,,0.00,0.00,VWS V14.01,2013-08-26 11:14:00,
2013-08-26 06:15:00,63.6,60.9,30.14,SSW,201,2.3,2.3,91,0.00,,,0.00,0.00,VWS V14.01,2013-08-26 11:15:00,
2013-08-26 06:17:00,63.6,60.9,30.14,SSW,201,0.0,2.3,91,0.00,,,0.00,5.00,VWS V14.01,2013-08-26 11:17:00,
2013-08-26 06:18:00,63.6,60.9,30.14,SSW,201,1.1,2.3,91,0.00,,,0.00,5.00,VWS V14.01,2013-08-26 11:18:00,
2013-08-26 06:20:00,63.6,60.9,30.14,SSW,201,0.0,2.3,91,0.00,,,0.00,5.00,VWS V14.01,2013-08-26 11:20:00,
2013-08-26 06:21:00,63.6,60.9,30.14,SSW,201,1.1,1.1,91,0.00,,,0.00,5.00,VWS V14.01,2013-08-26 11:21:00,
2013-08-26 06:23:00,63.6,60.9,30.14,SSW,201,1.1,4.6,91,0.00,,,0.00,7.00,VWS V14.01,2013-08-26 11:23:00,
2013-08-26 06:26:00,63.6,60.9,30.15,SSW,201,1.1,1.1,91,0.00,,,0.00,9.00,VWS V14.01,2013-08-26 11:26:00,
2013-08-26 06:28:00,63.6,60.9,30.15,SSW,201,4.6,4.6,91,0.00,,,0.00,11.00,VWS V14.01,2013-08-26 11:28:00,
2013-08-26 06:31:00,63.7,61.0,30.15,SSW,201,0.0,1.1,91,0.00,,,0.00,14.00,VWS V14.01,2013-08-26 11:31:00,
2013-08-26 06:33:00,63.7,61.0,30.15,SSW,201,0.0,2.3,91,0.00,,,0.00,16.00,VWS V14.01,2013-08-26 11:33:00,
2013-08-26 06:34:00,63.8,61.4,30.15,SSW,201,0.0,2.3,92,0.00,,,0.00,18.00,VWS V14.01,2013-08-26 11:34:00,
2013-08-26 06:35:00,63.8,61.4,30.15,SSW,201,0.0,2.3,92,0.00,,,0.00,19.00,VWS V14.01,2013-08-26 11:35:00,
2013-08-26 06:36:00,64.0,61.3,30.15,SSW,201,0.0,2.3,91,0.00,,,0.00,19.00,VWS V14.01,2013-08-26 11:36:00,
2013-08-26 06:38:00,64.0,61.3,30.15,SSW,201,1.1,2.3,91,0.00,,,0.00,25.00,VWS V14.01,2013-08-26 11:38:00,
2013-08-26 06:40:00,64.1,61.4,30.15,SSW,201,1.1,2.3,91,0.00,,,0.00,26.00,VWS V14.01,2013-08-26 11:40:00,
2013-08-26 06:42:00,64.1,61.4,30.15,SSW,201,1.1,3.4,91,0.00,,,0.00,33.00,VWS V14.01,2013-08-26 11:42:00,
2013-08-26 06:45:00,64.3,61.6,30.15,SSW,201,0.0,3.4,91,0.00,,,0.00,39.00,VWS V14.01,2013-08-26 11:45:00,
2013-08-26 06:46:00,64.3,61.6,30.15,SSW,201,0.0,0.0,91,0.00,,,0.00,39.00,VWS V14.01,2013-08-26 11:46:00,
2013-08-26 06:47:00,64.5,62.1,30.15,SSW,201,0.0,1.1,92,0.00,,,0.00,40.00,VWS V14.01,2013-08-26 11:47:00,
2013-08-26 06:50:00,64.7,62.0,30.15,SSW,201,0.0,2.3,91,0.00,,,0.00,46.00,VWS V14.01,2013-08-26 11:50:00,
2013-08-26 06:51:00,64.9,62.2,30.15,SSW,201,0.0,1.1,91,0.00,,,0.00,46.00,VWS V14.01,2013-08-26 11:51:00,
2013-08-26 06:54:00,65.2,62.5,30.15,SSW,201,0.0,2.3,91,0.00,,,0.00,51.00,VWS V14.01,2013-08-26 11:54:00,
2013-08-26 06:56:00,65.3,62.6,30.15,SSW,201,2.3,2.3,91,0.00,,,0.00,54.00,VWS V14.01,2013-08-26 11:56:00,
2013-08-26 06:57:00,65.4,62.7,30.15,SSW,201,0.0,2.3,91,0.00,,,0.00,54.00,VWS V14.01,2013-08-26 11:57:00,
2013-08-26 06:59:00,65.7,63.0,30.16,SSW,201,1.1,2.3,91,0.00,,,0.00,60.00,VWS V14.01,2013-08-26 11:59:00,
2013-08-26 07:00:00,65.8,62.8,30.16,SSW,201,0.0,0.0,90,0.00,,,0.00,67.00,VWS V14.01,2013-08-26 12:00:00,
2013-08-26 07:01:00,65.9,62.9,30.16,SSW,201,0.0,0.0,90,0.00,,,0.00,67.00,VWS V14.01,2013-08-26 12:01:00,
2013-08-26 07:02:00,66.0,63.0,30.16,SSW,201,0.0,1.1,90,0.00,,,0.00,76.00,VWS V14.01,2013-08-26 12:02:00,
2013-08-26 07:04:00,66.1,63.1,30.16,SSW,201,1.1,1.1,90,0.00,,,0.00,84.00,VWS V14.01,2013-08-26 12:04:00,
2013-08-26 07:05:00,66.1,63.1,30.16,SSW,201,1.1,3.4,90,0.00,,,0.00,88.00,VWS V14.01,2013-08-26 12:05:00,
2013-08-26 07:06:00,66.1,62.8,30.16,SSW,201,0.0,1.1,89,0.00,,,0.00,91.00,VWS V14.01,2013-08-26 12:06:00,
2013-08-26 07:08:00,66.1,63.1,30.16,SSW,201,0.0,1.1,90,0.00,,,0.00,95.00,VWS V14.01,2013-08-26 12:08:00,
2013-08-26 07:09:00,66.2,63.2,30.16,SSW,201,0.0,1.1,90,0.00,,,0.00,97.00,VWS V14.01,2013-08-26 12:09:00,
2013-08-26 07:10:00,66.2,63.2,30.16,SSW,201,0.0,1.1,90,0.00,,,0.00,104.00,VWS V14.01,2013-08-26 12:10:00,
2013-08-26 07:11:00,66.3,63.3,30.16,SSW,201,0.0,1.1,90,0.00,,,0.00,107.00,VWS V14.01,2013-08-26 12:11:00,
2013-08-26 07:13:00,66.4,63.4,30.16,SSW,201,1.1,1.1,90,0.00,,,0.00,120.00,VWS V14.01,2013-08-26 12:13:00,
2013-08-26 07:14:00,66.5,63.5,30.16,SSW,201,1.1,3.4,90,0.00,,,0.00,123.00,VWS V14.01,2013-08-26 12:14:00,
2013-08-26 07:16:00,66.7,63.7,30.16,SSW,201,0.0,0.0,90,0.00,,,0.00,120.00,VWS V14.01,2013-08-26 12:16:00,
2013-08-26 07:17:00,66.8,63.8,30.16,SSW,201,0.0,3.4,90,0.00,,,0.00,134.00,VWS V14.01,2013-08-26 12:17:00,
2013-08-26 07:18:00,67.0,64.0,30.16,SSW,201,5.8,5.8,90,0.00,,,0.00,135.00,VWS V14.01,2013-08-26 12:18:00,
2013-08-26 07:19:00,67.1,64.1,30.16,SSW,202,2.3,5.8,90,0.00,,,0.00,135.00,VWS V14.01,2013-08-26 12:19:00,
2013-08-26 07:20:00,67.2,64.2,30.16,SSW,202,4.6,5.8,90,0.00,,,0.00,142.00,VWS V14.01,2013-08-26 12:20:00,
2013-08-26 07:21:00,67.4,64.1,30.16,SSW,202,3.4,4.6,89,0.00,,,0.00,153.00,VWS V14.01,2013-08-26 12:21:00,
2013-08-26 07:23:00,67.6,64.2,30.16,SSW,200,3.4,6.9,89,0.00,,,0.00,134.00,VWS V14.01,2013-08-26 12:23:00,
2013-08-26 07:24:00,67.6,64.2,30.16,SSW,200,2.3,6.9,89,0.00,,,0.00,135.00,VWS V14.01,2013-08-26 12:24:00,
2013-08-26 07:25:00,67.7,64.3,30.16,SSW,200,0.0,6.9,89,0.00,,,0.00,135.00,VWS V14.01,2013-08-26 12:25:00,
2013-08-26 07:26:00,67.8,64.4,30.16,SSW,201,3.4,5.8,89,0.00,,,0.00,135.00,VWS V14.01,2013-08-26 12:26:00,
2013-08-26 07:27:00,67.9,64.5,30.16,SSW,201,1.1,5.8,89,0.00,,,0.00,156.00,VWS V14.01,2013-08-26 12:27:00,
2013-08-26 07:29:00,68.0,64.6,30.16,SW,218,4.6,8.1,89,0.00,,,0.00,181.00,VWS V14.01,2013-08-26 12:29:00,
2013-08-26 07:30:00,68.0,64.6,30.16,SW,219,2.3,8.1,89,0.00,,,0.00,181.00,VWS V14.01,2013-08-26 12:30:00,
2013-08-26 07:31:00,68.1,64.7,30.16,SW,227,8.1,8.1,89,0.00,,,0.00,183.00,VWS V14.01,2013-08-26 12:31:00,
2013-08-26 07:33:00,68.3,64.9,30.16,SSW,210,3.4,8.1,89,0.00,,,0.00,188.00,VWS V14.01,2013-08-26 12:33:00,
2013-08-26 07:35:00,68.4,65.0,30.16,SSW,202,3.4,3.4,89,0.00,,,0.00,200.00,VWS V14.01,2013-08-26 12:35:00,
2013-08-26 07:36:00,68.5,65.1,30.16,SSW,203,3.4,4.6,89,0.00,,,0.00,218.00,VWS V14.01,2013-08-26 12:36:00,
2013-08-26 07:37:00,68.6,65.2,30.16,SW,215,0.0,6.9,89,0.00,,,0.00,214.00,VWS V14.01,2013-08-26 12:37:00,
2013-08-26 07:38:00,68.6,65.2,30.16,SW,218,4.6,6.9,89,0.00,,,0.00,214.00,VWS V14.01,2013-08-26 12:38:00,
2013-08-26 07:39:00,68.7,65.3,30.16,SW,216,1.1,6.9,89,0.00,,,0.00,214.00,VWS V14.01,2013-08-26 12:39:00,
2013-08-26 07:41:00,68.9,65.5,30.16,SSW,207,2.3,3.4,89,0.00,,,0.00,199.00,VWS V14.01,2013-08-26 12:41:00,
2013-08-26 07:43:00,69.1,65.7,30.16,WSW,238,3.4,6.9,89,0.00,,,0.00,167.00,VWS V14.01,2013-08-26 12:43:00,
2013-08-26 07:45:00,69.2,65.8,30.16,SW,232,3.4,6.9,89,0.00,,,0.00,148.00,VWS V14.01,2013-08-26 12:45:00,
2013-08-26 07:46:00,69.3,65.9,30.16,SW,234,4.6,5.8,89,0.00,,,0.00,141.00,VWS V14.01,2013-08-26 12:46:00,
2013-08-26 07:48:00,69.5,65.8,30.16,SSW,209,3.4,5.8,88,0.00,,,0.00,114.00,VWS V14.01,2013-08-26 12:48:00,
2013-08-26 07:49:00,69.5,65.8,30.16,SSW,213,2.3,5.8,88,0.00,,,0.00,114.00,VWS V14.01,2013-08-26 12:49:00,
2013-08-26 07:50:00,69.6,65.9,30.16,SW,225,3.4,5.8,88,0.00,,,0.00,137.00,VWS V14.01,2013-08-26 12:50:00,
2013-08-26 07:51:00,69.7,66.0,30.16,SW,220,6.9,6.9,88,0.00,,,0.00,139.00,VWS V14.01,2013-08-26 12:51:00,
2013-08-26 07:52:00,69.7,66.0,30.16,SW,224,2.3,6.9,88,0.00,,,0.00,139.00,VWS V14.01,2013-08-26 12:52:00,
2013-08-26 07:54:00,69.8,66.1,30.16,SW,217,2.3,6.9,88,0.00,,,0.00,120.00,VWS V14.01,2013-08-26 12:54:00,
2013-08-26 07:55:00,69.9,66.2,30.16,WSW,250,2.3,8.1,88,0.00,,,0.00,116.00,VWS V14.01,2013-08-26 12:55:00,
2013-08-26 07:57:00,70.1,66.4,30.16,WSW,258,5.8,9.2,88,0.00,,,0.00,123.00,VWS V14.01,2013-08-26 12:57:00,
2013-08-26 07:58:00,70.1,66.4,30.16,WSW,258,3.4,9.2,88,0.00,,,0.00,144.00,VWS V14.01,2013-08-26 12:58:00,
2013-08-26 08:00:00,70.3,66.6,30.16,SW,217,3.4,9.2,88,0.00,,,0.00,234.00,VWS V14.01,2013-08-26 13:00:00,
2013-08-26 08:01:00,70.4,66.7,30.16,SW,236,3.4,6.9,88,0.00,,,0.00,234.00,VWS V14.01,2013-08-26 13:01:00,
2013-08-26 08:02:00,70.5,66.8,30.16,WSW,258,4.6,6.9,88,0.00,,,0.00,237.00,VWS V14.01,2013-08-26 13:02:00,
2013-08-26 08:03:00,70.6,66.9,30.16,SW,235,1.1,6.9,88,0.00,,,0.00,218.00,VWS V14.01,2013-08-26 13:03:00,
2013-08-26 08:04:00,70.7,67.0,30.16,West,273,6.9,6.9,88,0.00,,,0.00,220.00,VWS V14.01,2013-08-26 13:04:00,
2013-08-26 08:05:00,70.8,66.7,30.16,WSW,239,6.9,6.9,87,0.00,,,0.00,232.00,VWS V14.01,2013-08-26 13:05:00,
2013-08-26 08:06:00,70.9,66.8,30.16,WSW,242,5.8,6.9,87,0.00,,,0.00,227.00,VWS V14.01,2013-08-26 13:06:00,
2013-08-26 08:08:00,71.0,66.9,30.16,WSW,242,4.6,8.1,87,0.00,,,0.00,241.00,VWS V14.01,2013-08-26 13:08:00,
2013-08-26 08:09:00,71.1,67.4,30.16,WSW,245,5.8,9.2,88,0.00,,,0.00,243.00,VWS V14.01,2013-08-26 13:09:00,
2013-08-26 08:10:00,71.2,67.5,30.16,WSW,246,8.1,8.1,88,0.00,,,0.00,248.00,VWS V14.01,2013-08-26 13:10:00,
2013-08-26 08:11:00,71.3,67.2,30.16,West,262,5.8,10.3,87,0.00,,,0.00,241.00,VWS V14.01,2013-08-26 13:11:00,
2013-08-26 08:12:00,71.4,67.3,30.16,WSW,252,3.4,10.3,87,0.00,,,0.00,241.00,VWS V14.01,2013-08-26 13:12:00,
2013-08-26 08:14:00,71.4,67.3,30.16,SW,233,4.6,10.3,87,0.00,,,0.00,216.00,VWS V14.01,2013-08-26 13:14:00,
2013-08-26 08:15:00,71.5,67.4,30.16,WSW,240,10.3,10.3,87,0.00,,,0.00,244.00,VWS V14.01,2013-08-26 13:15:00,
2013-08-26 08:17:00,71.5,67.4,30.16,West,267,5.8,11.5,87,0.00,,,0.00,192.00,VWS V14.01,2013-08-26 13:17:00,
2013-08-26 08:18:00,71.6,67.5,30.16,WSW,246,6.9,11.5,87,0.00,,,0.00,244.00,VWS V14.01,2013-08-26 13:18:00,
2013-08-26 08:19:00,71.6,67.5,30.16,WSW,240,5.8,11.5,87,0.00,,,0.00,274.00,VWS V14.01,2013-08-26 13:19:00,
2013-08-26 08:21:00,71.7,67.6,30.16,WSW,254,5.8,6.9,87,0.00,,,0.00,306.00,VWS V14.01,2013-08-26 13:21:00,
2013-08-26 08:22:00,71.8,68.1,30.16,WSW,243,4.6,9.2,88,0.00,,,0.00,315.00,VWS V14.01,2013-08-26 13:22:00,
2013-08-26 08:23:00,71.8,68.1,30.16,SW,232,4.6,9.2,88,0.00,,,0.00,315.00,VWS V14.01,2013-08-26 13:23:00,
2013-08-26 08:24:00,72.0,67.9,30.16,WSW,247,10.3,10.3,87,0.00,,,0.00,313.00,VWS V14.01,2013-08-26 13:24:00,
2013-08-26 08:26:00,72.2,68.1,30.16,West,262,6.9,10.3,87,0.00,,,0.00,313.00,VWS V14.01,2013-08-26 13:26:00,
2013-08-26 08:28:00,72.3,68.2,30.16,WSW,244,5.8,10.3,87,0.00,,,0.00,336.00,VWS V14.01,2013-08-26 13:28:00,
2013-08-26 08:29:00,72.4,68.3,30.16,WSW,247,5.8,10.3,87,0.00,,,0.00,348.00,VWS V14.01,2013-08-26 13:29:00,
2013-08-26 08:30:00,72.5,68.1,30.16,WSW,254,5.8,10.3,86,0.00,,,0.00,348.00,VWS V14.01,2013-08-26 13:30:00,
2013-08-26 08:33:00,72.7,67.9,30.16,WNW,286,6.9,9.2,85,0.00,,,0.00,352.00,VWS V14.01,2013-08-26 13:33:00,
2013-08-26 08:35:00,72.9,68.1,30.16,WSW,242,5.8,9.2,85,0.00,,,0.00,352.00,VWS V14.01,2013-08-26 13:35:00,
2013-08-26 08:38:00,73.4,68.6,30.16,West,262,3.4,9.2,85,0.00,,,0.00,371.00,VWS V14.01,2013-08-26 13:38:00,
2013-08-26 08:40:00,73.5,68.4,30.16,SW,227,8.1,11.5,84,0.00,,,0.00,380.00,VWS V14.01,2013-08-26 13:40:00,
2013-08-26 08:41:00,73.7,68.6,30.15,WSW,251,6.9,11.5,84,0.00,,,0.00,387.00,VWS V14.01,2013-08-26 13:41:00,
2013-08-26 08:42:00,73.7,68.6,30.15,SW,227,4.6,11.5,84,0.00,,,0.00,387.00,VWS V14.01,2013-08-26 13:42:00,
2013-08-26 08:44:00,73.9,68.8,30.15,West,259,6.9,11.5,84,0.00,,,0.00,385.00,VWS V14.01,2013-08-26 13:44:00,
2013-08-26 08:45:00,73.9,68.4,30.15,West,261,4.6,5.8,83,0.00,,,0.00,388.00,VWS V14.01,2013-08-26 13:45:00,
2013-08-26 08:46:00,73.9,68.4,30.15,WSW,246,5.8,9.2,83,0.00,,,0.00,385.00,VWS V14.01,2013-08-26 13:46:00,
2013-08-26 08:47:00,73.9,68.4,30.15,West,267,6.9,9.2,83,0.00,,,0.00,381.00,VWS V14.01,2013-08-26 13:47:00,
2013-08-26 08:50:00,73.9,68.8,30.15,WNW,284,10.3,10.3,84,0.00,,,0.00,374.00,VWS V14.01,2013-08-26 13:50:00,
2013-08-26 08:51:00,73.9,68.4,30.15,SW,228,3.4,5.8,83,0.00,,,0.00,374.00,VWS V14.01,2013-08-26 13:51:00,
2013-08-26 08:52:00,73.9,68.4,30.15,WSW,250,8.1,9.2,83,0.00,,,0.00,383.00,VWS V14.01,2013-08-26 13:52:00,
2013-08-26 08:55:00,74.1,68.6,30.15,West,267,3.4,10.3,83,0.00,,,0.00,374.00,VWS V14.01,2013-08-26 13:55:00,
2013-08-26 08:57:00,74.1,68.6,30.15,West,261,8.1,10.3,83,0.00,,,0.00,388.00,VWS V14.01,2013-08-26 13:57:00,
2013-08-26 08:58:00,74.0,68.5,30.15,West,262,6.9,10.3,83,0.00,,,0.00,399.00,VWS V14.01,2013-08-26 13:58:00,
2013-08-26 08:59:00,74.0,68.5,30.15,WSW,246,5.8,10.3,83,0.00,,,0.00,410.00,VWS V14.01,2013-08-26 13:59:00,
2013-08-26 09:00:00,74.0,68.5,30.15,WNW,288,6.9,6.9,83,0.00,,,0.00,425.00,VWS V14.01,2013-08-26 14:00:00,
2013-08-26 09:02:00,74.0,68.5,30.15,West,280,3.4,11.5,83,0.00,,,0.00,432.00,VWS V14.01,2013-08-26 14:02:00,
2013-08-26 09:03:00,74.1,68.3,30.15,SSW,200,6.9,11.5,82,0.00,,,0.00,434.00,VWS V14.01,2013-08-26 14:03:00,
2013-08-26 09:05:00,74.2,68.7,30.15,WSW,242,3.4,11.5,83,0.00,,,0.00,415.00,VWS V14.01,2013-08-26 14:05:00,
2013-08-26 09:06:00,74.3,68.8,30.15,WSW,243,4.6,6.9,83,0.00,,,0.00,401.00,VWS V14.01,2013-08-26 14:06:00,
2013-08-26 09:09:00,74.8,69.3,30.15,SW,236,4.6,9.2,83,0.00,,,0.00,432.00,VWS V14.01,2013-08-26 14:09:00,
2013-08-26 09:10:00,74.9,69.0,30.15,SW,223,3.4,10.3,82,0.00,,,0.00,438.00,VWS V14.01,2013-08-26 14:10:00,
2013-08-26 09:11:00,74.9,69.0,30.15,WNW,290,6.9,9.2,82,0.00,,,0.00,420.00,VWS V14.01,2013-08-26 14:11:00,
2013-08-26 09:12:00,74.9,69.0,30.15,SW,232,4.6,11.5,82,0.00,,,0.00,320.00,VWS V14.01,2013-08-26 14:12:00,
2013-08-26 09:14:00,74.9,69.0,30.15,WNW,285,4.6,11.5,82,0.00,,,0.00,334.00,VWS V14.01,2013-08-26 14:14:00,
2013-08-26 09:15:00,74.9,69.0,30.15,WNW,296,3.4,5.8,82,0.00,,,0.00,329.00,VWS V14.01,2013-08-26 14:15:00,
2013-08-26 09:16:00,74.9,69.0,30.15,WSW,251,8.1,9.2,82,0.00,,,0.00,336.00,VWS V14.01,2013-08-26 14:16:00,
2013-08-26 09:17:00,75.1,69.2,30.15,WSW,248,2.3,9.2,82,0.00,,,0.00,283.00,VWS V14.01,2013-08-26 14:17:00,
2013-08-26 09:21:00,75.1,69.2,30.15,WSW,246,5.8,10.3,82,0.00,,,0.00,297.00,VWS V14.01,2013-08-26 14:21:00,
2013-08-26 09:22:00,75.0,69.1,30.14,West,274,8.1,10.3,82,0.00,,,0.00,323.00,VWS V14.01,2013-08-26 14:22:00,
2013-08-26 09:23:00,75.0,69.1,30.15,WSW,244,4.6,10.3,82,0.00,,,0.00,338.00,VWS V14.01,2013-08-26 14:23:00,
2013-08-26 09:26:00,75.1,69.2,30.15,West,279,5.8,8.1,82,0.00,,,0.00,352.00,VWS V14.01,2013-08-26 14:26:00,
2013-08-26 09:28:00,75.1,68.9,30.14,West,262,4.6,9.2,81,0.00,,,0.00,374.00,VWS V14.01,2013-08-26 14:28:00,
2013-08-26 09:29:00,75.2,69.3,30.14,WSW,255,10.3,11.5,82,0.00,,,0.00,387.00,VWS V14.01,2013-08-26 14:29:00,
2013-08-26 09:30:00,75.4,69.5,30.14,WSW,237,6.9,11.5,82,0.00,,,0.00,388.00,VWS V14.01,2013-08-26 14:30:00,
2013-08-26 09:31:00,75.5,69.6,30.14,WSW,254,2.3,6.9,82,0.00,,,0.00,425.00,VWS V14.01,2013-08-26 14:31:00,
2013-08-26 09:34:00,75.8,69.6,30.14,SW,232,4.6,6.9,81,0.00,,,0.00,445.00,VWS V14.01,2013-08-26 14:34:00,
2013-08-26 09:35:00,76.0,69.8,30.14,SW,235,4.6,8.1,81,0.00,,,0.00,448.00,VWS V14.01,2013-08-26 14:35:00,
2013-08-26 09:37:00,76.4,69.8,30.14,WSW,256,5.8,10.3,80,0.00,,,0.00,420.00,VWS V14.01,2013-08-26 14:37:00,
2013-08-26 09:39:00,76.5,70.2,30.14,WSW,256,3.4,10.3,81,0.00,,,0.00,415.00,VWS V14.01,2013-08-26 14:39:00,
2013-08-26 09:40:00,76.6,70.0,30.14,WNW,286,5.8,10.3,80,0.00,,,0.00,411.00,VWS V14.01,2013-08-26 14:40:00,
2013-08-26 09:42:00,76.7,69.7,30.14,WSW,251,4.6,11.5,79,0.00,,,0.00,399.00,VWS V14.01,2013-08-26 14:42:00,
2013-08-26 09:45:00,76.6,69.2,30.14,WSW,250,6.9,13.8,78,0.00,,,0.00,385.00,VWS V14.01,2013-08-26 14:45:00,
2013-08-26 09:46:00,76.7,69.3,30.14,West,277,4.6,6.9,78,0.00,,,0.00,392.00,VWS V14.01,2013-08-26 14:46:00,
2013-08-26 09:47:00,76.7,69.7,30.14,WSW,242,4.6,9.2,79,0.00,,,0.00,417.00,VWS V14.01,2013-08-26 14:47:00,
2013-08-26 09:48:00,76.7,70.1,30.14,WSW,254,3.4,9.2,80,0.00,,,0.00,408.00,VWS V14.01,2013-08-26 14:48:00,
2013-08-26 09:51:00,76.8,69.8,30.14,SW,231,4.6,9.2,79,0.00,,,0.00,401.00,VWS V14.01,2013-08-26 14:51:00,
2013-08-26 09:52:00,76.9,70.3,30.14,WSW,238,4.6,9.2,80,0.00,,,0.00,406.00,VWS V14.01,2013-08-26 14:52:00,
2013-08-26 09:53:00,77.0,70.0,30.14,WSW,253,5.8,9.2,79,0.00,,,0.00,399.00,VWS V14.01,2013-08-26 14:53:00,
2013-08-26 09:54:00,77.1,70.1,30.14,West,266,4.6,9.2,79,0.00,,,0.00,397.00,VWS V14.01,2013-08-26 14:54:00,
2013-08-26 09:56:00,77.3,70.3,30.14,WSW,249,8.1,10.3,79,0.00,,,0.00,413.00,VWS V14.01,2013-08-26 14:56:00,
2013-08-26 09:57:00,77.3,70.7,30.14,SW,229,3.4,10.3,80,0.00,,,0.00,413.00,VWS V14.01,2013-08-26 14:57:00,
2013-08-26 09:58:00,77.4,70.0,30.14,West,261,8.1,10.3,78,0.00,,,0.00,408.00,VWS V14.01,2013-08-26 14:58:00,
2013-08-26 10:00:00,77.5,70.1,30.14,WNW,283,5.8,10.3,78,0.00,,,0.00,394.00,VWS V14.01,2013-08-26 15:00:00,
2013-08-26 10:02:00,77.5,70.1,30.14,WSW,250,10.3,10.3,78,0.00,,,0.00,394.00,VWS V14.01,2013-08-26 15:02:00,
2013-08-26 10:03:00,77.4,70.4,30.14,West,264,9.2,10.3,79,0.00,,,0.00,373.00,VWS V14.01,2013-08-26 15:03:00,
2013-08-26 10:04:00,77.4,70.0,30.14,West,261,8.1,10.3,78,0.00,,,0.00,373.00,VWS V14.01,2013-08-26 15:04:00,
2013-08-26 10:05:00,77.4,70.4,30.14,WSW,238,3.4,6.9,79,0.00,,,0.00,378.00,VWS V14.01,2013-08-26 15:05:00,
2013-08-26 10:07:00,77.5,70.5,30.15,WSW,253,5.8,6.9,79,0.00,,,0.00,359.00,VWS V14.01,2013-08-26 15:07:00,
2013-08-26 10:08:00,77.5,70.1,30.15,WSW,248,4.6,6.9,78,0.00,,,0.00,357.00,VWS V14.01,2013-08-26 15:08:00,
2013-08-26 10:09:00,77.5,70.1,30.15,WNW,287,5.8,6.9,78,0.00,,,0.00,364.00,VWS V14.01,2013-08-26 15:09:00,
2013-08-26 10:10:00,77.6,70.2,30.15,WNW,285,8.1,9.2,78,0.00,,,0.00,366.00,VWS V14.01,2013-08-26 15:10:00,
2013-08-26 10:11:00,77.6,70.2,30.15,WNW,284,6.9,8.1,78,0.00,,,0.00,367.00,VWS V14.01,2013-08-26 15:11:00,
2013-08-26 10:12:00,77.6,70.2,30.15,West,265,4.6,9.2,78,0.00,,,0.00,362.00,VWS V14.01,2013-08-26 15:12:00,
2013-08-26 10:13:00,77.7,70.3,30.15,WNW,282,3.4,9.2,78,0.00,,,0.00,362.00,VWS V14.01,2013-08-26 15:13:00,
2013-08-26 10:16:00,77.8,70.4,30.15,West,279,8.1,10.3,78,0.00,,,0.00,339.00,VWS V14.01,2013-08-26 15:16:00,
2013-08-26 10:18:00,77.8,70.4,30.15,West,267,8.1,10.3,78,0.00,,,0.00,338.00,VWS V14.01,2013-08-26 15:18:00,
2013-08-26 10:19:00,77.8,70.0,30.15,West,264,9.2,10.3,77,0.00,,,0.00,325.00,VWS V14.01,2013-08-26 15:19:00,
2013-08-26 10:21:00,78.0,71.0,30.15,West,259,3.4,10.3,79,0.00,,,0.00,318.00,VWS V14.01,2013-08-26 15:21:00,
2013-08-26 10:23:00,78.1,70.7,30.15,WSW,255,5.8,10.3,78,0.00,,,0.00,309.00,VWS V14.01,2013-08-26 15:23:00,
2013-08-26 10:24:00,78.2,70.8,30.15,WSW,248,3.4,10.3,78,0.00,,,0.00,309.00,VWS V14.01,2013-08-26 15:24:00,
2013-08-26 10:26:00,78.3,71.6,30.15,SW,232,4.6,8.1,80,0.00,,,0.00,302.00,VWS V14.01,2013-08-26 15:26:00,
2013-08-26 10:28:00,78.3,70.9,30.15,West,260,4.6,10.3,78,0.00,,,0.00,309.00,VWS V14.01,2013-08-26 15:28:00,
2013-08-26 10:30:00,78.2,70.8,30.15,West,278,2.3,4.6,78,0.00,,,0.00,353.00,VWS V14.01,2013-08-26 15:30:00,
2013-08-26 10:31:00,78.2,70.8,30.15,WSW,237,4.6,9.2,78,0.00,,,0.00,353.00,VWS V14.01,2013-08-26 15:31:00,
2013-08-26 10:34:00,78.3,70.9,30.15,WNW,284,4.6,9.2,78,0.00,,,0.00,388.00,VWS V14.01,2013-08-26 15:34:00,
2013-08-26 10:35:00,78.3,70.9,30.15,West,263,4.6,4.6,78,0.00,,,0.00,457.00,VWS V14.01,2013-08-26 15:35:00,
2013-08-26 10:36:00,78.4,71.3,30.15,SSW,196,2.3,6.9,79,0.00,,,0.00,480.00,VWS V14.01,2013-08-26 15:36:00,
2013-08-26 10:37:00,78.6,71.2,30.15,WSW,256,9.2,9.2,78,0.00,,,0.00,439.00,VWS V14.01,2013-08-26 15:37:00,
2013-08-26 10:39:00,78.7,71.6,30.15,WNW,290,5.8,9.2,79,0.00,,,0.00,482.00,VWS V14.01,2013-08-26 15:39:00,
2013-08-26 10:41:00,78.8,71.0,30.15,West,281,2.3,8.1,77,0.00,,,0.00,476.00,VWS V14.01,2013-08-26 15:41:00,
2013-08-26 10:42:00,78.8,71.0,30.15,West,281,3.4,8.1,77,0.00,,,0.00,534.00,VWS V14.01,2013-08-26 15:42:00,
2013-08-26 10:43:00,78.8,71.0,30.15,WNW,298,3.4,8.1,77,0.00,,,0.00,571.00,VWS V14.01,2013-08-26 15:43:00,
2013-08-26 10:45:00,79.0,71.2,30.14,West,259,4.6,8.1,77,0.00,,,0.00,631.00,VWS V14.01,2013-08-26 15:45:00,
2013-08-26 10:47:00,79.4,71.6,30.15,West,278,2.3,6.9,77,0.00,,,0.00,635.00,VWS V14.01,2013-08-26 15:47:00,
2013-08-26 10:48:00,79.4,71.6,30.15,West,278,0.0,6.9,77,0.00,,,0.00,591.00,VWS V14.01,2013-08-26 15:48:00,
2013-08-26 10:50:00,79.8,71.9,30.15,West,281,4.6,4.6,77,0.00,,,0.00,656.00,VWS V14.01,2013-08-26 15:50:00,
2013-08-26 10:51:00,79.9,71.7,30.15,West,278,4.6,4.6,76,0.00,,,0.00,656.00,VWS V14.01,2013-08-26 15:51:00,
2013-08-26 10:52:00,80.2,72.3,30.15,WSW,256,3.4,5.8,77,0.00,,,0.00,615.00,VWS V14.01,2013-08-26 15:52:00,
2013-08-26 10:53:00,80.3,72.4,30.15,West,265,3.4,5.8,77,0.00,,,0.00,615.00,VWS V14.01,2013-08-26 15:53:00,
2013-08-26 10:54:00,80.4,71.8,30.15,WSW,242,3.4,6.9,75,0.00,,,0.00,686.00,VWS V14.01,2013-08-26 15:54:00,
2013-08-26 10:55:00,80.7,72.4,30.15,SW,220,1.1,1.1,76,0.00,,,0.00,647.00,VWS V14.01,2013-08-26 15:55:00,
2013-08-26 10:57:00,80.9,71.8,30.15,WSW,248,9.2,9.2,74,0.00,,,0.00,684.00,VWS V14.01,2013-08-26 15:57:00,
2013-08-26 10:58:00,81.0,71.9,30.15,WSW,253,9.2,9.2,74,0.00,,,0.00,717.00,VWS V14.01,2013-08-26 15:58:00,
2013-08-26 10:59:00,81.1,71.6,30.15,West,270,9.2,10.3,73,0.00,,,0.00,640.00,VWS V14.01,2013-08-26 15:59:00,
2013-08-26 11:00:00,81.1,71.2,30.15,West,259,5.8,10.3,72,0.00,,,0.00,640.00,VWS V14.01,2013-08-26 16:00:00,
2013-08-26 11:01:00,81.0,71.1,30.15,West,268,8.1,13.8,72,0.00,,,0.00,336.00,VWS V14.01,2013-08-26 16:01:00,
2013-08-26 11:03:00,80.5,70.7,30.15,West,270,8.1,13.8,72,0.00,,,0.00,404.00,VWS V14.01,2013-08-26 16:03:00,
2013-08-26 11:04:00,80.5,70.7,30.15,WNW,286,9.2,13.8,72,0.00,,,0.00,404.00,VWS V14.01,2013-08-26 16:04:00,
2013-08-26 11:05:00,80.5,71.1,30.15,West,276,10.3,13.8,73,0.00,,,0.00,561.00,VWS V14.01,2013-08-26 16:05:00,
2013-08-26 11:07:00,80.6,71.6,30.15,West,280,6.9,10.3,74,0.00,,,0.00,526.00,VWS V14.01,2013-08-26 16:07:00,
2013-08-26 11:09:00,80.6,71.6,30.15,WSW,241,5.8,10.3,74,0.00,,,0.00,508.00,VWS V14.01,2013-08-26 16:09:00,
2013-08-26 11:10:00,80.7,71.2,30.15,West,276,4.6,10.3,73,0.00,,,0.00,513.00,VWS V14.01,2013-08-26 16:10:00,
2013-08-26 11:11:00,80.9,71.4,30.15,WSW,246,8.1,8.1,73,0.00,,,0.00,550.00,VWS V14.01,2013-08-26 16:11:00,
2013-08-26 11:12:00,81.0,71.5,30.15,WSW,239,5.8,10.3,73,0.00,,,0.00,610.00,VWS V14.01,2013-08-26 16:12:00,
2013-08-26 11:15:00,81.4,71.9,30.15,West,276,5.8,13.8,73,0.00,,,0.00,693.00,VWS V14.01,2013-08-26 16:15:00,
2013-08-26 11:16:00,81.5,71.2,30.15,WSW,258,6.9,10.3,71,0.00,,,0.00,670.00,VWS V14.01,2013-08-26 16:16:00,
2013-08-26 11:17:00,81.5,71.2,30.15,West,273,6.9,10.3,71,0.00,,,0.00,687.00,VWS V14.01,2013-08-26 16:17:00,
2013-08-26 11:18:00,81.6,71.3,30.15,WNW,287,5.8,10.3,71,0.00,,,0.00,687.00,VWS V14.01,2013-08-26 16:18:00,
2013-08-26 11:19:00,81.6,71.3,30.15,WNW,288,1.1,10.3,71,0.00,,,0.00,680.00,VWS V14.01,2013-08-26 16:19:00,
2013-08-26 11:20:00,81.5,71.6,30.15,WSW,257,9.2,9.2,72,0.00,,,0.00,664.00,VWS V14.01,2013-08-26 16:20:00,
2013-08-26 11:22:00,81.7,71.8,30.14,WNW,296,6.9,9.2,72,0.00,,,0.00,712.00,VWS V14.01,2013-08-26 16:22:00,
2013-08-26 11:23:00,81.8,71.9,30.14,WNW,290,5.8,9.2,72,0.00,,,0.00,745.00,VWS V14.01,2013-08-26 16:23:00,
2013-08-26 11:25:00,82.0,71.7,30.14,West,275,5.8,11.5,71,0.00,,,0.00,830.00,VWS V14.01,2013-08-26 16:25:00,
2013-08-26 11:26:00,82.0,71.7,30.14,West,275,9.2,9.2,71,0.00,,,0.00,826.00,VWS V14.01,2013-08-26 16:26:00,
2013-08-26 11:27:00,82.2,72.3,30.14,West,272,6.9,9.2,72,0.00,,,0.00,780.00,VWS V14.01,2013-08-26 16:27:00,
2013-08-26 11:29:00,82.4,72.5,30.15,West,267,8.1,9.2,72,0.00,,,0.00,733.00,VWS V14.01,2013-08-26 16:29:00,
2013-08-26 11:30:00,82.6,72.2,30.15,WNW,286,6.9,9.2,71,0.00,,,0.00,698.00,VWS V14.01,2013-08-26 16:30:00,
2013-08-26 11:31:00,82.7,72.3,30.15,WSW,250,4.6,8.1,71,0.00,,,0.00,636.00,VWS V14.01,2013-08-26 16:31:00,
2013-08-26 11:32:00,82.8,72.4,30.15,WNW,302,8.1,8.1,71,0.00,,,0.00,642.00,VWS V14.01,2013-08-26 16:32:00,
2013-08-26 11:34:00,82.8,72.0,30.14,WSW,257,8.1,9.2,70,0.00,,,0.00,629.00,VWS V14.01,2013-08-26 16:34:00,
2013-08-26 11:35:00,82.7,71.9,30.14,WNW,292,4.6,8.1,70,0.00,,,0.00,659.00,VWS V14.01,2013-08-26 16:35:00,
2013-08-26 11:36:00,82.7,71.9,30.14,SW,232,6.9,9.2,70,0.00,,,0.00,659.00,VWS V14.01,2013-08-26 16:36:00,
2013-08-26 11:38:00,83.0,73.5,30.14,NW,317,9.2,10.3,73,0.00,,,0.00,652.00,VWS V14.01,2013-08-26 16:38:00,
2013-08-26 11:40:00,83.3,72.5,30.14,West,259,9.2,11.5,70,0.00,,,0.00,689.00,VWS V14.01,2013-08-26 16:40:00,
2013-08-26 11:41:00,83.3,72.5,30.14,West,263,8.1,11.5,70,0.00,,,0.00,689.00,VWS V14.01,2013-08-26 16:41:00,
2013-08-26 11:42:00,83.3,72.1,30.14,West,274,5.8,11.5,69,0.00,,,0.00,703.00,VWS V14.01,2013-08-26 16:42:00,
2013-08-26 11:46:00,83.3,72.5,30.14,WNW,284,5.8,6.9,70,0.00,,,0.00,717.00,VWS V14.01,2013-08-26 16:46:00,
2013-08-26 11:47:00,83.6,72.8,30.14,WNW,295,8.1,10.3,70,0.00,,,0.00,694.00,VWS V14.01,2013-08-26 16:47:00,
2013-08-26 11:51:00,83.5,72.7,30.14,West,261,5.8,10.3,70,0.00,,,0.00,582.00,VWS V14.01,2013-08-26 16:51:00,
2013-08-26 11:52:00,83.4,71.7,30.13,WNW,285,8.1,11.5,68,0.00,,,0.00,587.00,VWS V14.01,2013-08-26 16:52:00,
2013-08-26 11:53:00,83.3,71.6,30.13,WNW,288,6.9,11.5,68,0.00,,,0.00,563.00,VWS V14.01,2013-08-26 16:53:00,
2013-08-26 11:57:00,83.3,72.5,30.13,SW,236,5.8,9.2,70,0.00,,,0.00,570.00,VWS V14.01,2013-08-26 16:57:00,
2013-08-26 11:58:00,83.4,72.2,30.13,SW,214,2.3,9.2,69,0.00,,,0.00,594.00,VWS V14.01,2013-08-26 16:58:00,
2013-08-26 11:59:00,83.6,72.4,30.13,SW,225,3.4,9.2,69,0.00,,,0.00,563.00,VWS V14.01,2013-08-26 16:59:00,
2013-08-26 12:02:00,83.9,73.1,30.13,West,261,10.3,10.3,70,0.00,,,0.00,571.00,VWS V14.01,2013-08-26 17:02:00,
2013-08-26 12:04:00,83.8,72.6,30.13,SSW,207,1.1,10.3,69,0.00,,,0.00,566.00,VWS V14.01,2013-08-26 17:04:00,
2013-08-26 12:07:00,84.0,72.7,30.13,SW,220,4.6,8.1,69,0.00,,,0.00,515.00,VWS V14.01,2013-08-26 17:07:00,
2013-08-26 12:08:00,84.1,72.8,30.13,WSW,251,6.9,8.1,69,0.00,,,0.00,503.00,VWS V14.01,2013-08-26 17:08:00,
2013-08-26 12:09:00,84.1,72.8,30.13,SW,223,5.8,9.2,69,0.00,,,0.00,568.00,VWS V14.01,2013-08-26 17:09:00,
2013-08-26 12:13:00,84.1,73.3,30.13,SW,236,8.1,9.2,70,0.00,,,0.00,652.00,VWS V14.01,2013-08-26 17:13:00,
2013-08-26 12:14:00,84.2,72.9,30.13,West,277,9.2,9.2,69,0.00,,,0.00,728.00,VWS V14.01,2013-08-26 17:14:00,
2013-08-26 12:15:00,84.1,72.4,30.13,West,275,5.8,9.2,68,0.00,,,0.00,731.00,VWS V14.01,2013-08-26 17:15:00,
2013-08-26 12:18:00,84.3,73.0,30.13,West,266,5.8,10.3,69,0.00,,,0.00,824.00,VWS V14.01,2013-08-26 17:18:00,
2013-08-26 12:20:00,84.5,73.7,30.13,West,267,2.3,10.3,70,0.00,,,0.00,828.00,VWS V14.01,2013-08-26 17:20:00,
2013-08-26 12:21:00,84.6,73.3,30.13,West,267,2.3,5.8,69,0.00,,,0.00,886.00,VWS V14.01,2013-08-26 17:21:00,
2013-08-26 12:24:00,85.0,73.7,30.13,WSW,248,5.8,10.3,69,0.00,,,0.00,722.00,VWS V14.01,2013-08-26 17:24:00,
2013-08-26 12:25:00,85.3,74.0,30.12,WSW,249,5.8,10.3,69,0.00,,,0.00,738.00,VWS V14.01,2013-08-26 17:25:00,
2013-08-26 12:26:00,85.4,73.6,30.12,WSW,257,5.8,8.1,68,0.00,,,0.00,772.00,VWS V14.01,2013-08-26 17:26:00,
2013-08-26 12:27:00,85.2,72.6,30.12,WSW,242,4.6,8.1,66,0.00,,,0.00,789.00,VWS V14.01,2013-08-26 17:27:00,
2013-08-26 12:29:00,85.2,73.4,30.12,West,268,6.9,10.3,68,0.00,,,0.00,872.00,VWS V14.01,2013-08-26 17:29:00,
2013-08-26 12:31:00,85.3,73.6,30.12,WNW,286,8.1,9.2,68,0.00,,,0.00,867.00,VWS V14.01,2013-08-26 17:31:00,
2013-08-26 12:32:00,85.3,73.1,30.12,WNW,284,4.6,9.2,67,0.00,,,0.00,821.00,VWS V14.01,2013-08-26 17:32:00,
2013-08-26 12:34:00,85.4,72.8,30.12,West,269,4.6,10.3,66,0.00,,,0.00,788.00,VWS V14.01,2013-08-26 17:34:00,
2013-08-26 12:35:00,85.3,73.1,30.12,West,269,1.1,10.3,67,0.00,,,0.00,788.00,VWS V14.01,2013-08-26 17:35:00,
2013-08-26 12:36:00,85.1,73.4,30.12,SW,221,6.9,8.1,68,0.00,,,0.00,788.00,VWS V14.01,2013-08-26 17:36:00,
2013-08-26 12:38:00,85.1,73.4,30.12,WSW,238,3.4,8.1,68,0.00,,,0.00,721.00,VWS V14.01,2013-08-26 17:38:00,
2013-08-26 12:40:00,85.3,73.1,30.12,West,275,8.1,9.2,67,0.00,,,0.00,724.00,VWS V14.01,2013-08-26 17:40:00,
2013-08-26 12:42:00,85.1,72.9,30.12,West,272,4.6,9.2,67,0.00,,,0.00,763.00,VWS V14.01,2013-08-26 17:42:00,
2013-08-26 12:43:00,85.0,73.3,30.12,West,274,4.6,9.2,68,0.00,,,0.00,752.00,VWS V14.01,2013-08-26 17:43:00,
2013-08-26 12:44:00,85.0,73.7,30.12,SSW,213,4.6,9.2,69,0.00,,,0.00,728.00,VWS V14.01,2013-08-26 17:44:00,
2013-08-26 12:45:00,85.3,75.2,30.12,WSW,246,6.9,9.2,72,0.00,,,0.00,742.00,VWS V14.01,2013-08-26 17:45:00,
2013-08-26 12:48:00,85.7,73.9,30.11,SW,232,4.6,9.2,68,0.00,,,0.00,696.00,VWS V14.01,2013-08-26 17:48:00,
2013-08-26 12:49:00,85.6,73.8,30.11,SSW,198,6.9,9.2,68,0.00,,,0.00,696.00,VWS V14.01,2013-08-26 17:49:00,
2013-08-26 12:50:00,85.7,74.4,30.11,SSW,209,4.6,9.2,69,0.00,,,0.00,724.00,VWS V14.01,2013-08-26 17:50:00,
2013-08-26 12:51:00,85.9,74.6,30.11,WSW,238,4.6,11.5,69,0.00,,,0.00,710.00,VWS V14.01,2013-08-26 17:51:00,
2013-08-26 12:53:00,86.0,73.8,30.11,South,186,4.6,11.5,67,0.00,,,0.00,772.00,VWS V14.01,2013-08-26 17:53:00,
2013-08-26 12:54:00,86.1,73.9,30.11,WSW,255,5.8,11.5,67,0.00,,,0.00,742.00,VWS V14.01,2013-08-26 17:54:00,
2013-08-26 12:55:00,86.1,73.9,30.11,West,266,4.6,11.5,67,0.00,,,0.00,758.00,VWS V14.01,2013-08-26 17:55:00,
2013-08-26 12:58:00,86.1,75.2,30.11,West,267,6.9,6.9,70,0.00,,,0.00,751.00,VWS V14.01,2013-08-26 17:58:00,
2013-08-26 12:59:00,86.2,74.0,30.11,WSW,242,6.9,8.1,67,0.00,,,0.00,729.00,VWS V14.01,2013-08-26 17:59:00,
2013-08-26 13:00:00,86.3,74.9,30.11,WSW,257,6.9,9.2,69,0.00,,,0.00,733.00,VWS V14.01,2013-08-26 18:00:00,
2013-08-26 13:01:00,86.4,74.6,30.11,SW,233,4.6,5.8,68,0.00,,,0.00,684.00,VWS V14.01,2013-08-26 18:01:00,
2013-08-26 13:03:00,86.4,74.2,30.11,WSW,255,5.8,8.1,67,0.00,,,0.00,733.00,VWS V14.01,2013-08-26 18:03:00,
2013-08-26 13:05:00,86.7,75.8,30.11,West,269,3.4,5.8,70,0.00,,,0.00,703.00,VWS V14.01,2013-08-26 18:05:00,
2013-08-26 13:06:00,86.8,75.8,30.11,WSW,251,9.2,9.2,70,0.00,,,0.00,744.00,VWS V14.01,2013-08-26 18:06:00,
2013-08-26 13:09:00,86.5,73.8,30.11,West,259,5.8,9.2,66,0.00,,,0.00,798.00,VWS V14.01,2013-08-26 18:09:00,
2013-08-26 13:11:00,86.2,74.0,30.11,West,268,3.4,4.6,67,0.00,,,0.00,823.00,VWS V14.01,2013-08-26 18:11:00,
2013-08-26 13:12:00,86.1,74.3,30.11,WNW,292,4.6,6.9,68,0.00,,,0.00,814.00,VWS V14.01,2013-08-26 18:12:00,
2013-08-26 13:15:00,86.4,74.2,30.11,West,272,8.1,10.3,67,0.00,,,0.00,868.00,VWS V14.01,2013-08-26 18:15:00,
2013-08-26 13:16:00,86.3,73.6,30.11,West,275,5.8,8.1,66,0.00,,,0.00,837.00,VWS V14.01,2013-08-26 18:16:00,
2013-08-26 13:17:00,86.3,74.1,30.11,West,275,3.4,8.1,67,0.00,,,0.00,807.00,VWS V14.01,2013-08-26 18:17:00,
2013-08-26 13:18:00,86.3,74.5,30.10,WSW,254,8.1,8.1,68,0.00,,,0.00,807.00,VWS V14.01,2013-08-26 18:18:00,
2013-08-26 13:21:00,86.8,74.5,30.10,SW,215,5.8,9.2,67,0.00,,,0.00,838.00,VWS V14.01,2013-08-26 18:21:00,
2013-08-26 13:22:00,87.2,74.9,30.10,SW,222,5.8,9.2,67,0.00,,,0.00,844.00,VWS V14.01,2013-08-26 18:22:00,
2013-08-26 13:23:00,87.4,75.6,30.10,SW,232,5.8,11.5,68,0.00,,,0.00,844.00,VWS V14.01,2013-08-26 18:23:00,
2013-08-26 13:24:00,87.6,74.8,30.10,WSW,250,6.9,11.5,66,0.00,,,0.00,809.00,VWS V14.01,2013-08-26 18:24:00,
2013-08-26 13:27:00,87.5,74.8,30.10,WSW,256,10.3,10.3,66,0.00,,,0.00,824.00,VWS V14.01,2013-08-26 18:27:00,
2013-08-26 13:28:00,87.5,74.8,30.10,WSW,250,8.1,10.3,66,0.00,,,0.00,828.00,VWS V14.01,2013-08-26 18:28:00,
2013-08-26 13:29:00,87.5,75.2,30.10,West,269,5.8,10.3,67,0.00,,,0.00,798.00,VWS V14.01,2013-08-26 18:29:00,
2013-08-26 13:31:00,87.3,74.1,30.10,SSW,196,4.6,6.9,65,0.00,,,0.00,812.00,VWS V14.01,2013-08-26 18:31:00,
2013-08-26 13:33:00,87.5,75.2,30.10,SSW,195,8.1,8.1,67,0.00,,,0.00,777.00,VWS V14.01,2013-08-26 18:33:00,
2013-08-26 13:34:00,87.7,75.8,30.10,SSW,194,6.9,10.3,68,0.00,,,0.00,809.00,VWS V14.01,2013-08-26 18:34:00,
2013-08-26 13:36:00,87.9,74.7,30.10,SW,232,6.9,8.1,65,0.00,,,0.00,733.00,VWS V14.01,2013-08-26 18:36:00,
2013-08-26 13:39:00,87.7,74.9,30.10,WSW,250,5.8,8.1,66,0.00,,,0.00,650.00,VWS V14.01,2013-08-26 18:39:00,
2013-08-26 13:40:00,87.4,74.7,30.10,WSW,242,11.5,11.5,66,0.00,,,0.00,744.00,VWS V14.01,2013-08-26 18:40:00,
2013-08-26 13:42:00,87.4,74.2,30.10,WSW,250,6.9,9.2,65,0.00,,,0.00,775.00,VWS V14.01,2013-08-26 18:42:00,
2013-08-26 13:45:00,87.5,74.8,30.09,WNW,287,5.8,11.5,66,0.00,,,0.00,552.00,VWS V14.01,2013-08-26 18:45:00,
2013-08-26 13:46:00,87.3,73.6,30.09,WSW,252,5.8,8.1,64,0.00,,,0.00,540.00,VWS V14.01,2013-08-26 18:46:00,
2013-08-26 13:47:00,86.8,74.1,30.09,WSW,255,6.9,8.1,66,0.00,,,0.00,568.00,VWS V14.01,2013-08-26 18:47:00,
2013-08-26 13:51:00,86.9,74.2,30.09,WSW,254,4.6,5.8,66,0.00,,,0.00,568.00,VWS V14.01,2013-08-26 18:51:00,
2013-08-26 13:52:00,86.9,74.6,30.09,West,262,6.9,11.5,67,0.00,,,0.00,568.00,VWS V14.01,2013-08-26 18:52:00,
2013-08-26 13:53:00,87.0,75.6,30.09,SSW,194,4.6,11.5,69,0.00,,,0.00,722.00,VWS V14.01,2013-08-26 18:53:00,
2013-08-26 13:56:00,87.7,74.9,30.09,West,276,8.1,9.2,66,0.00,,,0.00,754.00,VWS V14.01,2013-08-26 18:56:00,
2013-08-26 13:57:00,87.7,74.5,30.09,WSW,244,10.3,10.3,65,0.00,,,0.00,754.00,VWS V14.01,2013-08-26 18:57:00,
2013-08-26 13:59:00,87.9,74.2,30.08,West,266,9.2,10.3,64,0.00,,,0.00,874.00,VWS V14.01,2013-08-26 18:59:00,
2013-08-26 14:01:00,87.9,74.7,30.09,SW,235,6.9,9.2,65,0.00,,,0.00,812.00,VWS V14.01,2013-08-26 19:01:00,
2013-08-26 14:04:00,87.9,74.7,30.08,SW,233,5.8,9.2,65,0.00,,,0.00,751.00,VWS V14.01,2013-08-26 19:04:00,
2013-08-26 14:05:00,88.0,75.7,30.08,SW,219,9.2,9.2,67,0.00,,,0.00,657.00,VWS V14.01,2013-08-26 19:05:00,
2013-08-26 14:06:00,88.0,74.3,30.08,SSW,192,8.1,13.8,64,0.00,,,0.00,636.00,VWS V14.01,2013-08-26 19:06:00,
2013-08-26 14:07:00,88.0,74.3,30.08,WSW,238,11.5,13.8,64,0.00,,,0.00,643.00,VWS V14.01,2013-08-26 19:07:00,
2013-08-26 14:10:00,87.8,74.1,30.09,WSW,239,5.8,13.8,64,0.00,,,0.00,568.00,VWS V14.01,2013-08-26 19:10:00,
2013-08-26 14:12:00,87.7,74.0,30.08,WNW,287,8.1,11.5,64,0.00,,,0.00,519.00,VWS V14.01,2013-08-26 19:12:00,
2013-08-26 14:13:00,87.5,73.4,30.08,West,267,3.4,11.5,63,0.00,,,0.00,489.00,VWS V14.01,2013-08-26 19:13:00,
2013-08-26 14:15:00,87.2,73.6,30.08,WSW,258,6.9,11.5,64,0.00,,,0.00,554.00,VWS V14.01,2013-08-26 19:15:00,
2013-08-26 14:17:00,87.6,74.4,30.08,West,267,8.1,9.2,65,0.00,,,0.00,494.00,VWS V14.01,2013-08-26 19:17:00,
2013-08-26 14:18:00,87.6,74.4,30.08,West,263,2.3,9.2,65,0.00,,,0.00,506.00,VWS V14.01,2013-08-26 19:18:00,
2013-08-26 14:19:00,87.6,75.3,30.08,SSW,208,8.1,9.2,67,0.00,,,0.00,457.00,VWS V14.01,2013-08-26 19:19:00,
2013-08-26 14:20:00,87.6,74.4,30.08,WSW,237,5.8,6.9,65,0.00,,,0.00,480.00,VWS V14.01,2013-08-26 19:20:00,
2013-08-26 14:22:00,87.4,73.7,30.08,West,273,9.2,11.5,64,0.00,,,0.00,496.00,VWS V14.01,2013-08-26 19:22:00,
2013-08-26 14:23:00,87.3,74.1,30.08,WSW,238,5.8,11.5,65,0.00,,,0.00,489.00,VWS V14.01,2013-08-26 19:23:00,
2013-08-26 14:24:00,87.3,74.6,30.08,SW,234,8.1,11.5,66,0.00,,,0.00,489.00,VWS V14.01,2013-08-26 19:24:00,
2013-08-26 14:25:00,87.3,74.1,30.08,West,279,8.1,8.1,65,0.00,,,0.00,501.00,VWS V14.01,2013-08-26 19:25:00,
2013-08-26 14:26:00,87.2,74.0,30.08,West,271,9.2,9.2,65,0.00,,,0.00,503.00,VWS V14.01,2013-08-26 19:26:00,
2013-08-26 14:28:00,86.9,73.3,30.08,West,273,6.9,10.3,64,0.00,,,0.00,510.00,VWS V14.01,2013-08-26 19:28:00,
2013-08-26 14:31:00,86.5,74.2,30.08,SW,221,2.3,6.9,67,0.00,,,0.00,524.00,VWS V14.01,2013-08-26 19:31:00,
2013-08-26 14:33:00,86.8,74.5,30.07,SW,215,1.1,8.1,67,0.00,,,0.00,640.00,VWS V14.01,2013-08-26 19:33:00,
2013-08-26 14:34:00,86.9,75.1,30.07,WSW,242,5.8,8.1,68,0.00,,,0.00,686.00,VWS V14.01,2013-08-26 19:34:00,
2013-08-26 14:36:00,87.2,74.5,30.07,West,265,6.9,14.9,66,0.00,,,0.00,605.00,VWS V14.01,2013-08-26 19:36:00,
2013-08-26 14:37:00,87.3,74.6,30.07,West,278,8.1,14.9,66,0.00,,,0.00,585.00,VWS V14.01,2013-08-26 19:37:00,
2013-08-26 14:38:00,87.2,73.6,30.07,West,260,4.6,14.9,64,0.00,,,0.00,621.00,VWS V14.01,2013-08-26 19:38:00,
2013-08-26 14:39:00,87.1,73.9,30.07,SW,231,5.8,14.9,65,0.00,,,0.00,645.00,VWS V14.01,2013-08-26 19:39:00,
2013-08-26 14:41:00,87.4,74.7,30.07,West,276,6.9,9.2,66,0.00,,,0.00,587.00,VWS V14.01,2013-08-26 19:41:00,
2013-08-26 14:43:00,87.5,75.2,30.07,SW,220,4.6,10.3,67,0.00,,,0.00,587.00,VWS V14.01,2013-08-26 19:43:00,
2013-08-26 14:44:00,87.6,74.8,30.07,SSW,211,6.9,10.3,66,0.00,,,0.00,573.00,VWS V14.01,2013-08-26 19:44:00,
2013-08-26 14:45:00,87.7,74.9,30.07,South,181,5.8,12.6,66,0.00,,,0.00,555.00,VWS V14.01,2013-08-26 19:45:00,
2013-08-26 14:47:00,87.7,75.4,30.07,SSW,210,10.3,12.6,67,0.00,,,0.00,635.00,VWS V14.01,2013-08-26 19:47:00,
2013-08-26 14:48:00,87.7,74.0,30.07,South,179,9.2,12.6,64,0.00,,,0.00,613.00,VWS V14.01,2013-08-26 19:48:00,
2013-08-26 14:50:00,88.0,75.2,30.07,SSW,206,5.8,12.6,66,0.00,,,0.00,703.00,VWS V14.01,2013-08-26 19:50:00,
2013-08-26 14:52:00,88.3,75.1,30.07,WSW,240,5.8,8.1,65,0.00,,,0.00,522.00,VWS V14.01,2013-08-26 19:52:00,
2013-08-26 14:53:00,88.2,74.5,30.07,SW,235,6.9,10.3,64,0.00,,,0.00,548.00,VWS V14.01,2013-08-26 19:53:00,
2013-08-26 14:56:00,88.0,74.8,30.06,SSW,202,10.3,10.3,65,0.00,,,0.00,497.00,VWS V14.01,2013-08-26 19:56:00,
2013-08-26 14:58:00,87.8,74.6,30.06,SW,219,8.1,10.3,65,0.00,,,0.00,357.00,VWS V14.01,2013-08-26 19:58:00,
2013-08-26 14:59:00,87.6,74.8,30.07,SW,236,3.4,10.3,66,0.00,,,0.00,329.00,VWS V14.01,2013-08-26 19:59:00,
2013-08-26 15:02:00,86.8,74.1,30.06,SW,219,2.3,9.2,66,0.00,,,0.00,327.00,VWS V14.01,2013-08-26 20:02:00,
2013-08-26 15:03:00,86.8,75.0,30.06,SSW,202,4.6,9.2,68,0.00,,,0.00,327.00,VWS V14.01,2013-08-26 20:03:00,
2013-08-26 15:04:00,86.8,75.0,30.06,SSW,197,8.1,9.2,68,0.00,,,0.00,424.00,VWS V14.01,2013-08-26 20:04:00,
2013-08-26 15:05:00,86.8,75.0,30.06,SSE,155,6.9,9.2,68,0.00,,,0.00,439.00,VWS V14.01,2013-08-26 20:05:00,
2013-08-26 15:07:00,86.7,74.4,30.06,SSW,202,5.8,10.3,67,0.00,,,0.00,396.00,VWS V14.01,2013-08-26 20:07:00,
2013-08-26 15:08:00,86.7,74.4,30.06,SSW,201,10.3,10.3,67,0.00,,,0.00,390.00,VWS V14.01,2013-08-26 20:08:00,
2013-08-26 15:09:00,86.7,74.4,30.06,SW,218,9.2,10.3,67,0.00,,,0.00,394.00,VWS V14.01,2013-08-26 20:09:00,
2013-08-26 15:10:00,86.6,74.8,30.06,South,188,6.9,6.9,68,0.00,,,0.00,381.00,VWS V14.01,2013-08-26 20:10:00,
2013-08-26 15:12:00,86.7,75.3,30.06,WSW,238,5.8,9.2,69,0.00,,,0.00,513.00,VWS V14.01,2013-08-26 20:12:00,
2013-08-26 15:13:00,86.7,75.3,30.06,SSW,205,6.9,9.2,69,0.00,,,0.00,513.00,VWS V14.01,2013-08-26 20:13:00,
2013-08-26 15:15:00,86.8,74.5,30.06,SSW,197,8.1,8.1,67,0.00,,,0.00,464.00,VWS V14.01,2013-08-26 20:15:00,
2013-08-26 15:16:00,86.8,75.0,30.06,SSW,193,8.1,10.3,68,0.00,,,0.00,476.00,VWS V14.01,2013-08-26 20:16:00,
2013-08-26 15:18:00,86.9,75.1,30.05,SSW,192,8.1,10.3,68,0.00,,,0.00,559.00,VWS V14.01,2013-08-26 20:18:00,
2013-08-26 15:19:00,87.0,75.2,30.05,SW,219,10.3,10.3,68,0.00,,,0.00,631.00,VWS V14.01,2013-08-26 20:19:00,
2013-08-26 15:21:00,87.3,75.9,30.05,SSW,194,8.1,8.1,69,0.00,,,0.00,687.00,VWS V14.01,2013-08-26 20:21:00,
2013-08-26 15:22:00,87.6,75.7,30.05,South,186,4.6,10.3,68,0.00,,,0.00,670.00,VWS V14.01,2013-08-26 20:22:00,
2013-08-26 15:23:00,87.7,76.3,30.05,SW,217,8.1,10.3,69,0.00,,,0.00,679.00,VWS V14.01,2013-08-26 20:23:00,
2013-08-26 15:24:00,87.8,75.5,30.05,SSE,158,8.1,10.3,67,0.00,,,0.00,680.00,VWS V14.01,2013-08-26 20:24:00,
2013-08-26 15:25:00,87.8,75.0,30.05,South,180,10.3,10.3,66,0.00,,,0.00,693.00,VWS V14.01,2013-08-26 20:25:00,
2013-08-26 15:26:00,88.0,75.2,30.05,WSW,237,4.6,6.9,66,0.00,,,0.00,677.00,VWS V14.01,2013-08-26 20:26:00,
2013-08-26 15:28:00,88.3,76.4,30.05,West,267,11.5,12.6,68,0.00,,,0.00,675.00,VWS V14.01,2013-08-26 20:28:00,
2013-08-26 15:30:00,88.3,75.1,30.04,WSW,253,9.2,9.2,65,0.00,,,0.00,531.00,VWS V14.01,2013-08-26 20:30:00,
2013-08-26 15:31:00,88.3,75.5,30.04,SSW,202,10.3,10.3,66,0.00,,,0.00,531.00,VWS V14.01,2013-08-26 20:31:00,
2013-08-26 15:32:00,88.2,75.4,30.04,WSW,242,8.1,10.3,66,0.00,,,0.00,619.00,VWS V14.01,2013-08-26 20:32:00,
2013-08-26 15:33:00,88.1,75.8,30.04,South,180,11.5,11.5,67,0.00,,,0.00,621.00,VWS V14.01,2013-08-26 20:33:00,
2013-08-26 15:34:00,88.1,75.3,30.04,SSW,205,10.3,13.8,66,0.00,,,0.00,638.00,VWS V14.01,2013-08-26 20:34:00,
2013-08-26 15:36:00,88.3,75.5,30.04,WSW,257,5.8,14.9,66,0.00,,,0.00,643.00,VWS V14.01,2013-08-26 20:36:00,
2013-08-26 15:37:00,88.3,75.1,30.04,WNW,294,9.2,14.9,65,0.00,,,0.00,682.00,VWS V14.01,2013-08-26 20:37:00,
2013-08-26 15:39:00,88.4,75.6,30.04,WSW,246,5.8,14.9,66,0.00,,,0.00,679.00,VWS V14.01,2013-08-26 20:39:00,
2013-08-26 15:40:00,88.4,76.1,30.04,WNW,302,10.3,14.9,67,0.00,,,0.00,677.00,VWS V14.01,2013-08-26 20:40:00,
2013-08-26 15:41:00,88.4,74.7,30.04,SW,221,8.1,14.9,64,0.00,,,0.00,654.00,VWS V14.01,2013-08-26 20:41:00,
2013-08-26 15:42:00,88.3,75.1,30.04,WSW,258,10.3,14.9,65,0.00,,,0.00,661.00,VWS V14.01,2013-08-26 20:42:00,
2013-08-26 15:43:00,88.3,75.5,30.04,West,275,6.9,14.9,66,0.00,,,0.00,661.00,VWS V14.01,2013-08-26 20:43:00,
2013-08-26 15:44:00,88.2,75.0,30.04,WSW,252,10.3,14.9,65,0.00,,,0.00,647.00,VWS V14.01,2013-08-26 20:44:00,
2013-08-26 15:46:00,88.3,75.1,30.04,SSE,148,8.1,17.2,65,0.00,,,0.00,647.00,VWS V14.01,2013-08-26 20:46:00,
2013-08-26 15:47:00,88.3,75.1,30.03,WSW,246,4.6,17.2,65,0.00,,,0.00,643.00,VWS V14.01,2013-08-26 20:47:00,
2013-08-26 15:49:00,88.4,76.1,30.03,SW,221,5.8,17.2,67,0.00,,,0.00,650.00,VWS V14.01,2013-08-26 20:49:00,
2013-08-26 15:50:00,88.6,75.8,30.03,WSW,245,6.9,17.2,66,0.00,,,0.00,650.00,VWS V14.01,2013-08-26 20:50:00,
2013-08-26 15:52:00,88.8,76.0,30.03,SW,218,8.1,13.8,66,0.00,,,0.00,622.00,VWS V14.01,2013-08-26 20:52:00,
2013-08-26 15:54:00,88.7,75.0,30.03,SSW,193,6.9,13.8,64,0.00,,,0.00,589.00,VWS V14.01,2013-08-26 20:54:00,
2013-08-26 15:55:00,88.6,74.9,30.03,WSW,244,5.8,5.8,64,0.00,,,0.00,666.00,VWS V14.01,2013-08-26 20:55:00,
2013-08-26 15:58:00,88.6,75.8,30.03,West,263,11.5,12.6,66,0.00,,,0.00,670.00,VWS V14.01,2013-08-26 20:58:00,
2013-08-26 15:59:00,88.6,75.3,30.03,SSW,198,12.6,16.1,65,0.00,,,0.00,657.00,VWS V14.01,2013-08-26 20:59:00,
2013-08-26 16:01:00,89.0,74.8,30.03,WSW,239,9.2,9.2,63,0.00,,,0.00,636.00,VWS V14.01,2013-08-26 21:01:00,
2013-08-26 16:03:00,89.0,75.7,30.03,WSW,255,9.2,10.3,65,0.00,,,0.00,622.00,VWS V14.01,2013-08-26 21:03:00,
2013-08-26 16:04:00,88.9,75.2,30.03,WSW,246,13.8,17.2,64,0.00,,,0.00,617.00,VWS V14.01,2013-08-26 21:04:00,
2013-08-26 16:05:00,88.8,75.1,30.03,WSW,242,11.5,17.2,64,0.00,,,0.00,617.00,VWS V14.01,2013-08-26 21:05:00,
2013-08-26 16:06:00,88.6,74.4,30.03,ESE,119,4.6,14.9,63,0.00,,,0.00,606.00,VWS V14.01,2013-08-26 21:06:00,
2013-08-26 16:07:00,88.6,74.9,30.03,WSW,250,5.8,14.9,64,0.00,,,0.00,598.00,VWS V14.01,2013-08-26 21:07:00,
2013-08-26 16:08:00,88.4,74.7,30.03,West,260,6.9,14.9,64,0.00,,,0.00,612.00,VWS V14.01,2013-08-26 21:08:00,
2013-08-26 16:10:00,88.5,75.2,30.03,SSW,204,11.5,14.9,65,0.00,,,0.00,552.00,VWS V14.01,2013-08-26 21:10:00,
2013-08-26 16:12:00,88.6,75.3,30.03,South,180,5.8,19.5,65,0.00,,,0.00,599.00,VWS V14.01,2013-08-26 21:12:00,
2013-08-26 16:13:00,88.7,75.4,30.03,West,265,8.1,19.5,65,0.00,,,0.00,612.00,VWS V14.01,2013-08-26 21:13:00,
2013-08-26 16:14:00,88.7,75.0,30.03,WSW,248,9.2,19.5,64,0.00,,,0.00,612.00,VWS V14.01,2013-08-26 21:14:00,
2013-08-26 16:15:00,88.8,75.5,30.03,WSW,258,9.2,19.5,65,0.00,,,0.00,603.00,VWS V14.01,2013-08-26 21:15:00,
2013-08-26 16:18:00,89.0,75.7,30.03,SW,229,8.1,11.5,65,0.00,,,0.00,524.00,VWS V14.01,2013-08-26 21:18:00,
2013-08-26 16:19:00,89.0,75.7,30.03,WSW,252,5.8,11.5,65,0.00,,,0.00,466.00,VWS V14.01,2013-08-26 21:19:00,
2013-08-26 16:20:00,88.9,75.2,30.03,SW,219,4.6,9.2,64,0.00,,,0.00,482.00,VWS V14.01,2013-08-26 21:20:00,
2013-08-26 16:23:00,88.9,75.6,30.03,West,261,11.5,14.9,65,0.00,,,0.00,540.00,VWS V14.01,2013-08-26 21:23:00,
2013-08-26 16:25:00,88.8,76.0,30.03,SW,236,12.6,14.9,66,0.00,,,0.00,540.00,VWS V14.01,2013-08-26 21:25:00,
2013-08-26 16:26:00,88.7,75.0,30.03,WSW,243,5.8,8.1,64,0.00,,,0.00,548.00,VWS V14.01,2013-08-26 21:26:00,
2013-08-26 16:28:00,88.8,76.0,30.03,WSW,252,16.1,18.4,66,0.00,,,0.00,522.00,VWS V14.01,2013-08-26 21:28:00,
2013-08-26 16:30:00,88.7,75.0,30.02,SW,227,9.2,18.4,64,0.00,,,0.00,431.00,VWS V14.01,2013-08-26 21:30:00,
2013-08-26 16:31:00,88.5,74.8,30.03,West,276,6.9,9.2,64,0.00,,,0.00,371.00,VWS V14.01,2013-08-26 21:31:00,
2013-08-26 16:32:00,88.4,75.1,30.03,West,262,9.2,9.2,65,0.00,,,0.00,371.00,VWS V14.01,2013-08-26 21:32:00,
2013-08-26 16:33:00,88.1,74.9,30.03,WSW,252,3.4,11.5,65,0.00,,,0.00,281.00,VWS V14.01,2013-08-26 21:33:00,
2013-08-26 16:35:00,87.9,75.1,30.03,WSW,241,10.3,11.5,66,0.00,,,0.00,285.00,VWS V14.01,2013-08-26 21:35:00,
2013-08-26 16:36:00,87.9,75.1,30.03,WSW,252,11.5,11.5,66,0.00,,,0.00,281.00,VWS V14.01,2013-08-26 21:36:00,
2013-08-26 16:37:00,87.7,74.5,30.03,WSW,256,12.6,12.6,65,0.00,,,0.00,290.00,VWS V14.01,2013-08-26 21:37:00,
2013-08-26 16:38:00,87.5,74.3,30.03,SW,236,9.2,12.6,65,0.00,,,0.00,283.00,VWS V14.01,2013-08-26 21:38:00,
2013-08-26 16:42:00,87.0,74.7,30.03,WNW,288,12.6,14.9,67,0.00,,,0.00,313.00,VWS V14.01,2013-08-26 21:42:00,
2013-08-26 16:43:00,86.9,74.2,30.03,WSW,240,14.9,19.5,66,0.00,,,0.00,271.00,VWS V14.01,2013-08-26 21:43:00,
2013-08-26 16:44:00,86.9,74.2,30.03,SW,225,11.5,19.5,66,0.00,,,0.00,271.00,VWS V14.01,2013-08-26 21:44:00,
2013-08-26 16:47:00,86.6,74.3,30.03,WSW,257,9.2,10.3,67,0.00,,,0.00,244.00,VWS V14.01,2013-08-26 21:47:00,
2013-08-26 16:48:00,86.6,74.3,30.03,WSW,254,8.1,11.5,67,0.00,,,0.00,244.00,VWS V14.01,2013-08-26 21:48:00,
2013-08-26 16:49:00,86.6,74.3,30.03,SSW,197,10.3,13.8,67,0.00,,,0.00,244.00,VWS V14.01,2013-08-26 21:49:00,
2013-08-26 16:50:00,86.5,74.2,30.03,WSW,241,10.3,13.8,67,0.00,,,0.00,255.00,VWS V14.01,2013-08-26 21:50:00,
2013-08-26 16:53:00,86.4,74.2,30.03,SW,225,3.4,10.3,67,0.00,,,0.00,274.00,VWS V14.01,2013-08-26 21:53:00,
2013-08-26 16:54:00,86.4,74.6,30.03,WSW,249,8.1,11.5,68,0.00,,,0.00,301.00,VWS V14.01,2013-08-26 21:54:00,
2013-08-26 16:55:00,86.4,74.6,30.03,SW,222,3.4,11.5,68,0.00,,,0.00,265.00,VWS V14.01,2013-08-26 21:55:00,
2013-08-26 16:56:00,86.5,74.7,30.03,SW,227,6.9,11.5,68,0.00,,,0.00,274.00,VWS V14.01,2013-08-26 21:56:00,
2013-08-26 16:59:00,86.5,74.7,30.03,West,272,10.3,19.5,68,0.00,,,0.00,359.00,VWS V14.01,2013-08-26 21:59:00,
2013-08-26 17:00:00,86.5,74.7,30.03,SW,231,13.8,19.5,68,0.00,,,0.00,357.00,VWS V14.01,2013-08-26 22:00:00,
2013-08-26 17:01:00,86.5,74.7,30.03,WSW,253,9.2,10.3,68,0.00,,,0.00,294.00,VWS V14.01,2013-08-26 22:01:00,
2013-08-26 17:04:00,86.5,75.1,30.03,WSW,250,12.6,12.6,69,0.00,,,0.00,258.00,VWS V14.01,2013-08-26 22:04:00,
2013-08-26 17:05:00,86.6,74.3,30.03,SW,227,6.9,12.6,67,0.00,,,0.00,267.00,VWS V14.01,2013-08-26 22:05:00,
2013-08-26 17:06:00,86.7,74.9,30.03,SW,217,5.8,11.5,68,0.00,,,0.00,248.00,VWS V14.01,2013-08-26 22:06:00,
2013-08-26 17:07:00,86.7,74.9,30.03,SSE,155,3.4,11.5,68,0.00,,,0.00,241.00,VWS V14.01,2013-08-26 22:07:00,
2013-08-26 17:09:00,86.9,75.5,30.03,SSW,206,8.1,11.5,69,0.00,,,0.00,341.00,VWS V14.01,2013-08-26 22:09:00,
2013-08-26 17:11:00,87.0,74.7,30.03,West,261,12.6,13.8,67,0.00,,,0.00,343.00,VWS V14.01,2013-08-26 22:11:00,
2013-08-26 17:12:00,87.0,74.3,30.03,WSW,251,9.2,13.8,66,0.00,,,0.00,343.00,VWS V14.01,2013-08-26 22:12:00,
2013-08-26 17:14:00,86.9,74.6,30.03,West,277,11.5,14.9,67,0.00,,,0.00,229.00,VWS V14.01,2013-08-26 22:14:00,
2013-08-26 17:16:00,86.8,74.1,30.03,WSW,252,10.3,14.9,66,0.00,,,0.00,218.00,VWS V14.01,2013-08-26 22:16:00,
2013-08-26 17:17:00,86.7,74.4,30.03,WSW,254,12.6,14.9,67,0.00,,,0.00,229.00,VWS V14.01,2013-08-26 22:17:00,
2013-08-26 17:19:00,86.6,73.9,30.03,SSW,192,9.2,14.9,66,0.00,,,0.00,237.00,VWS V14.01,2013-08-26 22:19:00,
2013-08-26 17:22:00,86.5,74.2,30.03,SW,234,10.3,10.3,67,0.00,,,0.00,193.00,VWS V14.01,2013-08-26 22:22:00,
2013-08-26 17:23:00,86.5,74.2,30.03,WSW,243,6.9,10.3,67,0.00,,,0.00,193.00,VWS V14.01,2013-08-26 22:23:00,
2013-08-26 17:25:00,86.5,74.2,30.03,West,279,5.8,10.3,67,0.00,,,0.00,185.00,VWS V14.01,2013-08-26 22:25:00,
2013-08-26 17:26:00,86.5,74.7,30.03,West,267,9.2,9.2,68,0.00,,,0.00,181.00,VWS V14.01,2013-08-26 22:26:00,
2013-08-26 17:27:00,86.5,74.7,30.03,WSW,239,4.6,9.2,68,0.00,,,0.00,172.00,VWS V14.01,2013-08-26 22:27:00,
2013-08-26 17:28:00,86.5,74.2,30.03,WSW,250,5.8,9.2,67,0.00,,,0.00,171.00,VWS V14.01,2013-08-26 22:28:00,
2013-08-26 17:30:00,86.4,74.2,30.03,SW,234,8.1,11.5,67,0.00,,,0.00,163.00,VWS V14.01,2013-08-26 22:30:00,
2013-08-26 17:31:00,86.2,74.4,30.03,SW,228,8.1,12.6,68,0.00,,,0.00,163.00,VWS V14.01,2013-08-26 22:31:00,
2013-08-26 17:32:00,86.1,74.3,30.03,WNW,284,10.3,13.8,68,0.00,,,0.00,160.00,VWS V14.01,2013-08-26 22:32:00,
2013-08-26 17:33:00,86.1,74.3,30.03,WSW,248,12.6,13.8,68,0.00,,,0.00,153.00,VWS V14.01,2013-08-26 22:33:00,
2013-08-26 17:36:00,85.9,74.6,30.03,SW,234,3.4,5.8,69,0.00,,,0.00,139.00,VWS V14.01,2013-08-26 22:36:00,
2013-08-26 17:37:00,85.8,74.5,30.03,WSW,248,3.4,6.9,69,0.00,,,0.00,139.00,VWS V14.01,2013-08-26 22:37:00,
2013-08-26 17:38:00,85.7,74.4,30.03,SW,232,3.4,6.9,69,0.00,,,0.00,148.00,VWS V14.01,2013-08-26 22:38:00,
2013-08-26 17:41:00,85.6,74.7,30.03,WNW,286,5.8,5.8,70,0.00,,,0.00,158.00,VWS V14.01,2013-08-26 22:41:00,
2013-08-26 17:42:00,85.6,74.3,30.03,West,260,5.8,6.9,69,0.00,,,0.00,162.00,VWS V14.01,2013-08-26 22:42:00,
2013-08-26 17:43:00,85.6,74.3,30.03,WSW,245,6.9,6.9,69,0.00,,,0.00,151.00,VWS V14.01,2013-08-26 22:43:00,
2013-08-26 17:47:00,85.5,74.6,30.02,WSW,246,1.1,8.1,70,0.00,,,0.00,137.00,VWS V14.01,2013-08-26 22:47:00,
2013-08-26 17:48:00,85.4,74.5,30.02,West,268,5.8,8.1,70,0.00,,,0.00,144.00,VWS V14.01,2013-08-26 22:48:00,
2013-08-26 17:50:00,85.3,74.0,30.03,WSW,256,6.9,8.1,69,0.00,,,0.00,144.00,VWS V14.01,2013-08-26 22:50:00,
2013-08-26 17:52:00,85.2,74.3,30.03,WSW,258,6.9,10.3,70,0.00,,,0.00,144.00,VWS V14.01,2013-08-26 22:52:00,
2013-08-26 17:53:00,85.2,74.3,30.03,WSW,257,9.2,10.3,70,0.00,,,0.00,144.00,VWS V14.01,2013-08-26 22:53:00,
2013-08-26 17:54:00,85.1,73.8,30.03,WSW,249,5.8,10.3,69,0.00,,,0.00,151.00,VWS V14.01,2013-08-26 22:54:00,
2013-08-26 17:55:00,85.1,74.2,30.03,WSW,242,5.8,10.3,70,0.00,,,0.00,141.00,VWS V14.01,2013-08-26 22:55:00,
2013-08-26 17:57:00,85.0,74.1,30.03,WSW,238,4.6,11.5,70,0.00,,,0.00,128.00,VWS V14.01,2013-08-26 22:57:00,
2013-08-26 17:58:00,85.0,74.1,30.03,WSW,240,5.8,11.5,70,0.00,,,0.00,125.00,VWS V14.01,2013-08-26 22:58:00,
2013-08-26 17:59:00,85.0,74.1,30.03,West,259,5.8,11.5,70,0.00,,,0.00,123.00,VWS V14.01,2013-08-26 22:59:00,
2013-08-26 18:00:00,85.0,74.1,30.03,West,265,4.6,11.5,70,0.00,,,0.00,121.00,VWS V14.01,2013-08-26 23:00:00,
2013-08-26 18:01:00,85.0,74.1,30.03,SW,232,1.1,5.8,70,0.00,,,0.00,123.00,VWS V14.01,2013-08-26 23:01:00,
2013-08-26 18:02:00,84.9,74.4,30.02,WSW,242,3.4,6.9,71,0.00,,,0.00,116.00,VWS V14.01,2013-08-26 23:02:00,
2013-08-26 18:04:00,84.9,74.4,30.02,SW,223,9.2,9.2,71,0.00,,,0.00,114.00,VWS V14.01,2013-08-26 23:04:00,
2013-08-26 18:05:00,84.8,74.4,30.02,SW,220,4.6,9.2,71,0.00,,,0.00,113.00,VWS V14.01,2013-08-26 23:05:00,
2013-08-26 18:06:00,84.7,74.3,30.02,SW,235,3.4,6.9,71,0.00,,,0.00,107.00,VWS V14.01,2013-08-26 23:06:00,
2013-08-26 18:07:00,84.6,74.2,30.02,WSW,249,1.1,6.9,71,0.00,,,0.00,109.00,VWS V14.01,2013-08-26 23:07:00,
2013-08-26 18:09:00,84.6,74.6,30.02,SW,226,3.4,6.9,72,0.00,,,0.00,107.00,VWS V14.01,2013-08-26 23:09:00,
2013-08-26 18:10:00,84.5,74.5,30.02,SW,235,3.4,3.4,72,0.00,,,0.00,102.00,VWS V14.01,2013-08-26 23:10:00,
2013-08-26 18:11:00,84.4,74.8,30.02,WSW,244,3.4,4.6,73,0.00,,,0.00,102.00,VWS V14.01,2013-08-26 23:11:00,
2013-08-26 18:12:00,84.3,74.7,30.02,SW,215,3.4,5.8,73,0.00,,,0.00,100.00,VWS V14.01,2013-08-26 23:12:00,
2013-08-26 18:14:00,84.2,74.6,30.02,WSW,248,4.6,5.8,73,0.00,,,0.00,88.00,VWS V14.01,2013-08-26 23:14:00,
2013-08-26 18:15:00,84.1,74.1,30.02,West,270,1.1,3.4,72,0.00,,,0.00,86.00,VWS V14.01,2013-08-26 23:15:00,
2013-08-26 18:16:00,84.1,74.5,30.02,WSW,252,5.8,5.8,73,0.00,,,0.00,86.00,VWS V14.01,2013-08-26 23:16:00,
2013-08-26 18:19:00,83.9,74.3,30.02,WSW,245,2.3,6.9,73,0.00,,,0.00,97.00,VWS V14.01,2013-08-26 23:19:00,
2013-08-26 18:20:00,83.9,74.3,30.02,SW,214,3.4,6.9,73,0.00,,,0.00,128.00,VWS V14.01,2013-08-26 23:20:00,
2013-08-26 18:21:00,83.9,74.3,30.02,SW,229,6.9,6.9,73,0.00,,,0.00,135.00,VWS V14.01,2013-08-26 23:21:00,
2013-08-26 18:22:00,83.9,74.3,30.02,WSW,240,1.1,6.9,73,0.00,,,0.00,132.00,VWS V14.01,2013-08-26 23:22:00,
2013-08-26 18:23:00,83.9,74.3,30.02,SW,231,4.6,6.9,73,0.00,,,0.00,130.00,VWS V14.01,2013-08-26 23:23:00,
2013-08-26 18:24:00,83.9,74.7,30.02,WSW,243,2.3,6.9,74,0.00,,,0.00,132.00,VWS V14.01,2013-08-26 23:24:00,
2013-08-26 18:25:00,83.9,74.3,30.02,SW,234,2.3,6.9,73,0.00,,,0.00,132.00,VWS V14.01,2013-08-26 23:25:00,
2013-08-26 18:26:00,84.0,74.4,30.02,SW,234,0.0,2.3,73,0.00,,,0.00,153.00,VWS V14.01,2013-08-26 23:26:00,
2013-08-26 18:28:00,84.1,74.9,30.02,SW,234,3.4,5.8,74,0.00,,,0.00,165.00,VWS V14.01,2013-08-26 23:28:00,
2013-08-26 18:29:00,84.1,74.9,30.02,SW,236,2.3,5.8,74,0.00,,,0.00,163.00,VWS V14.01,2013-08-26 23:29:00,
2013-08-26 18:30:00,84.2,74.6,30.02,SW,236,0.0,5.8,73,0.00,,,0.00,158.00,VWS V14.01,2013-08-26 23:30:00,
2013-08-26 18:32:00,84.2,74.6,30.02,SW,225,1.1,6.9,73,0.00,,,0.00,144.00,VWS V14.01,2013-08-26 23:32:00,
2013-08-26 18:33:00,84.2,74.6,30.02,WSW,254,4.6,6.9,73,0.00,,,0.00,144.00,VWS V14.01,2013-08-26 23:33:00,
2013-08-26 18:34:00,84.2,75.0,30.02,SW,216,1.1,6.9,74,0.00,,,0.00,144.00,VWS V14.01,2013-08-26 23:34:00,
2013-08-26 18:35:00,84.2,75.0,30.02,SW,216,1.1,6.9,74,0.00,,,0.00,144.00,VWS V14.01,2013-08-26 23:35:00,
2013-08-26 18:37:00,84.2,74.6,30.02,SW,225,1.1,5.8,73,0.00,,,0.00,134.00,VWS V14.01,2013-08-26 23:37:00,
2013-08-26 18:39:00,84.3,74.3,30.02,SW,222,2.3,5.8,72,0.00,,,0.00,125.00,VWS V14.01,2013-08-26 23:39:00,
2013-08-26 18:40:00,84.3,74.7,30.02,WSW,246,3.4,5.8,73,0.00,,,0.00,97.00,VWS V14.01,2013-08-26 23:40:00,
2013-08-26 18:41:00,84.3,74.7,30.02,WSW,246,0.0,3.4,73,0.00,,,0.00,102.00,VWS V14.01,2013-08-26 23:41:00,
2013-08-26 18:43:00,84.3,74.7,30.02,WSW,244,1.1,4.6,73,0.00,,,0.00,104.00,VWS V14.01,2013-08-26 23:43:00,
2013-08-26 18:44:00,84.3,74.7,30.02,SW,219,2.3,5.8,73,0.00,,,0.00,95.00,VWS V14.01,2013-08-26 23:44:00,
2013-08-26 18:45:00,84.3,74.7,30.02,SW,226,2.3,5.8,73,0.00,,,0.00,102.00,VWS V14.01,2013-08-26 23:45:00,
2013-08-26 18:46:00,84.3,74.7,30.02,West,281,3.4,3.4,73,0.00,,,0.00,100.00,VWS V14.01,2013-08-26 23:46:00,
2013-08-26 18:49:00,84.0,74.4,30.02,SW,225,5.8,5.8,73,0.00,,,0.00,90.00,VWS V14.01,2013-08-26 23:49:00,
2013-08-26 18:50:00,83.9,74.7,30.02,SW,235,4.6,5.8,74,0.00,,,0.00,83.00,VWS V14.01,2013-08-26 23:50:00,
2013-08-26 18:53:00,83.7,74.5,30.02,SW,220,1.1,5.8,74,0.00,,,0.00,63.00,VWS V14.01,2013-08-26 23:53:00,
2013-08-26 18:55:00,83.6,74.4,30.02,SW,223,2.3,5.8,74,0.00,,,0.00,56.00,VWS V14.01,2013-08-26 23:55:00,
2013-08-26 18:56:00,83.6,74.4,30.02,SW,215,2.3,4.6,74,0.00,,,0.00,49.00,VWS V14.01,2013-08-26 23:56:00,
2013-08-26 18:59:00,83.3,74.6,30.02,SSW,209,2.3,5.8,75,0.00,,,0.00,35.00,VWS V14.01,2013-08-26 23:59:00,
2013-08-26 19:00:00,83.2,74.5,30.02,SSW,205,3.4,5.8,75,0.00,,,0.00,33.00,VWS V14.01,2013-08-27 00:00:00,
2013-08-26 19:01:00,83.2,74.8,30.02,SSW,205,1.1,3.4,76,0.00,,,0.00,32.00,VWS V14.01,2013-08-27 00:01:00,
2013-08-26 19:02:00,83.0,74.7,30.02,SSW,205,0.0,3.4,76,0.00,,,0.00,30.00,VWS V14.01,2013-08-27 00:02:00,
2013-08-26 19:05:00,82.7,74.4,30.02,SSW,202,3.4,5.8,76,0.00,,,0.00,26.00,VWS V14.01,2013-08-27 00:05:00,
2013-08-26 19:06:00,82.6,74.3,30.02,SSW,202,2.3,3.4,76,0.00,,,0.00,25.00,VWS V14.01,2013-08-27 00:06:00,
2013-08-26 19:08:00,82.4,74.5,30.02,SSW,201,3.4,4.6,77,0.00,,,0.00,21.00,VWS V14.01,2013-08-27 00:08:00,
2013-08-26 19:09:00,82.1,74.6,30.02,SSW,205,4.6,4.6,78,0.00,,,0.00,19.00,VWS V14.01,2013-08-27 00:09:00,
2013-08-26 19:10:00,82.1,74.6,30.02,SSW,205,3.4,4.6,78,0.00,,,0.00,19.00,VWS V14.01,2013-08-27 00:10:00,
2013-08-26 19:11:00,82.0,74.1,30.02,SW,219,2.3,4.6,77,0.00,,,0.00,18.00,VWS V14.01,2013-08-27 00:11:00,
2013-08-26 19:14:00,81.8,74.3,30.02,SW,228,3.4,4.6,78,0.00,,,0.00,14.00,VWS V14.01,2013-08-27 00:14:00,
2013-08-26 19:15:00,81.8,74.3,30.02,SW,228,2.3,4.6,78,0.00,,,0.00,14.00,VWS V14.01,2013-08-27 00:15:00,
2013-08-26 19:17:00,81.6,74.1,30.02,SW,221,5.8,5.8,78,0.00,,,0.00,12.00,VWS V14.01,2013-08-27 00:17:00,
2013-08-26 19:19:00,81.3,74.2,30.01,SSW,211,1.1,5.8,79,0.00,,,0.00,11.00,VWS V14.01,2013-08-27 00:19:00,
2013-08-26 19:21:00,81.2,74.1,30.01,SSW,211,0.0,2.3,79,0.00,,,0.00,11.00,VWS V14.01,2013-08-27 00:21:00,
2013-08-26 19:22:00,81.1,74.0,30.01,SSW,209,2.3,4.6,79,0.00,,,0.00,9.00,VWS V14.01,2013-08-27 00:22:00,
2013-08-26 19:23:00,81.1,74.0,30.01,SSW,209,2.3,4.6,79,0.00,,,0.00,9.00,VWS V14.01,2013-08-27 00:23:00,
2013-08-26 19:25:00,80.9,73.8,30.01,SW,215,3.4,5.8,79,0.00,,,0.00,7.00,VWS V14.01,2013-08-27 00:25:00,
2013-08-26 19:26:00,80.9,73.8,30.01,SSW,200,2.3,3.4,79,0.00,,,0.00,7.00,VWS V14.01,2013-08-27 00:26:00,
2013-08-26 19:27:00,80.9,73.8,30.01,SSW,200,3.4,4.6,79,0.00,,,0.00,7.00,VWS V14.01,2013-08-27 00:27:00,
2013-08-26 19:28:00,80.7,73.6,30.01,SSW,200,2.3,4.6,79,0.00,,,0.00,5.00,VWS V14.01,2013-08-27 00:28:00,
2013-08-26 19:29:00,80.7,74.0,30.01,SSW,200,3.4,4.6,80,0.00,,,0.00,5.00,VWS V14.01,2013-08-27 00:29:00,
2013-08-26 19:30:00,80.7,73.6,30.01,SSW,200,0.0,0.0,79,0.00,,,0.00,0.00,VWS V14.01,2013-08-27 00:30:00,
2013-08-26 19:31:00,80.7,73.6,30.01,SSW,200,1.1,1.1,79,0.00,,,0.00,0.00,VWS V14.01,2013-08-27 00:31:00,
2013-08-26 19:32:00,80.7,73.6,30.01,SSW,200,3.4,3.4,79,0.00,,,0.00,0.00,VWS V14.01,2013-08-27 00:32:00,
2013-08-26 19:36:00,80.5,73.4,30.01,SSW,198,3.4,5.8,79,0.00,,,0.00,0.00,VWS V14.01,2013-08-27 00:36:00,
2013-08-26 19:38:00,80.3,73.6,30.01,SSW,198,4.6,5.8,80,0.00,,,0.00,0.00,VWS V14.01,2013-08-27 00:38:00,
2013-08-26 19:39:00,80.1,73.4,30.01,SSW,198,1.1,5.8,80,0.00,,,0.00,0.00,VWS V14.01,2013-08-27 00:39:00,
2013-08-26 19:41:00,80.1,73.4,30.01,SSW,197,2.3,5.8,80,0.00,,,0.00,0.00,VWS V14.01,2013-08-27 00:41:00,
2013-08-26 19:43:00,79.9,73.2,30.01,SSW,197,2.3,5.8,80,0.00,,,0.00,0.00,VWS V14.01,2013-08-27 00:43:00,
2013-08-26 19:45:00,79.7,73.4,30.01,SSW,213,4.6,5.8,81,0.00,,,0.00,0.00,VWS V14.01,2013-08-27 00:45:00,
2013-08-26 19:46:00,79.6,73.3,30.01,SSW,213,1.1,1.1,81,0.00,,,0.00,0.00,VWS V14.01,2013-08-27 00:46:00,
2013-08-26 19:47:00,79.6,73.3,30.01,SSW,213,3.4,3.4,81,0.00,,,0.00,0.00,VWS V14.01,2013-08-27 00:47:00,
2013-08-26 19:49:00,79.6,73.3,30.01,SSW,213,3.4,4.6,81,0.00,,,0.00,0.00,VWS V14.01,2013-08-27 00:49:00,
2013-08-26 19:50:00,79.5,73.2,30.01,SSW,213,4.6,4.6,81,0.00,,,0.00,0.00,VWS V14.01,2013-08-27 00:50:00,
2013-08-26 19:51:00,79.5,73.2,30.01,SSW,213,2.3,4.6,81,0.00,,,0.00,0.00,VWS V14.01,2013-08-27 00:51:00,
2013-08-26 19:52:00,79.5,73.2,30.01,SSW,213,1.1,5.8,81,0.00,,,0.00,0.00,VWS V14.01,2013-08-27 00:52:00,
2013-08-26 19:53:00,79.5,73.2,30.01,SSW,213,0.0,5.8,81,0.00,,,0.00,0.00,VWS V14.01,2013-08-27 00:53:00,
2013-08-26 19:54:00,79.5,73.2,30.01,SSW,213,0.0,5.8,81,0.00,,,0.00,0.00,VWS V14.01,2013-08-27 00:54:00,
2013-08-26 19:56:00,79.4,73.1,30.01,SSW,213,2.3,4.6,81,0.00,,,0.00,0.00,VWS V14.01,2013-08-27 00:56:00,
2013-08-26 19:58:00,79.3,73.0,30.01,SSW,213,1.1,4.6,81,0.00,,,0.00,0.00,VWS V14.01,2013-08-27 00:58:00,
2013-08-26 19:59:00,79.3,73.0,30.01,SSW,213,1.1,4.6,81,0.00,,,0.00,0.00,VWS V14.01,2013-08-27 00:59:00,
2013-08-26 20:01:00,79.1,72.8,30.01,SW,215,4.6,4.6,81,0.00,,,0.00,0.00,VWS V14.01,2013-08-27 01:01:00,
2013-08-26 20:02:00,79.1,72.8,30.01,SW,215,3.4,4.6,81,0.00,,,0.00,0.00,VWS V14.01,2013-08-27 01:02:00,
2013-08-26 20:03:00,79.0,72.7,30.01,SW,215,0.0,4.6,81,0.00,,,0.00,0.00,VWS V14.01,2013-08-27 01:03:00,
2013-08-26 20:04:00,79.0,72.7,30.01,SW,215,1.1,4.6,81,0.00,,,0.00,0.00,VWS V14.01,2013-08-27 01:04:00,
2013-08-26 20:05:00,79.0,73.0,30.01,SW,215,0.0,4.6,82,0.00,,,0.00,0.00,VWS V14.01,2013-08-27 01:05:00,
2013-08-26 20:07:00,78.8,72.8,30.01,SW,215,1.1,3.4,82,0.00,,,0.00,0.00,VWS V14.01,2013-08-27 01:07:00,
2013-08-26 20:08:00,78.7,72.8,30.01,SW,215,0.0,3.4,82,0.00,,,0.00,0.00,VWS V14.01,2013-08-27 01:08:00,
2013-08-26 20:10:00,78.7,72.8,30.01,SW,215,0.0,3.4,82,0.00,,,0.00,0.00,VWS V14.01,2013-08-27 01:10:00,
2013-08-26 20:12:00,78.7,72.8,30.01,SW,215,4.6,5.8,82,0.00,,,0.00,0.00,VWS V14.01,2013-08-27 01:12:00,
2013-08-26 20:14:00,78.6,72.7,30.01,SW,215,0.0,5.8,82,0.00,,,0.00,0.00,VWS V14.01,2013-08-27 01:14:00,
2013-08-26 20:15:00,78.5,72.6,30.01,SW,215,1.1,2.3,82,0.00,,,0.00,0.00,VWS V14.01,2013-08-27 01:15:00,
2013-08-26 20:17:00,78.5,72.6,30.01,SW,215,2.3,4.6,82,0.00,,,0.00,0.00,VWS V14.01,2013-08-27 01:17:00,
2013-08-26 20:18:00,78.5,72.6,30.01,SW,215,0.0,5.8,82,0.00,,,0.00,0.00,VWS V14.01,2013-08-27 01:18:00,
2013-08-26 20:20:00,78.5,72.2,30.01,SW,215,1.1,5.8,81,0.00,,,0.00,0.00,VWS V14.01,2013-08-27 01:20:00,
2013-08-26 20:21:00,78.5,72.2,30.01,SW,215,3.4,4.6,81,0.00,,,0.00,0.00,VWS V14.01,2013-08-27 01:21:00,
2013-08-26 20:22:00,78.5,72.6,30.01,SW,215,1.1,4.6,82,0.00,,,0.00,0.00,VWS V14.01,2013-08-27 01:22:00,
2013-08-26 20:24:00,78.4,72.1,30.01,SW,215,3.4,4.6,81,0.00,,,0.00,0.00,VWS V14.01,2013-08-27 01:24:00,
2013-08-26 20:25:00,78.4,72.1,30.01,SW,215,1.1,4.6,81,0.00,,,0.00,0.00,VWS V14.01,2013-08-27 01:25:00,
2013-08-26 20:26:00,78.4,72.4,30.01,SW,215,3.4,3.4,82,0.00,,,0.00,0.00,VWS V14.01,2013-08-27 01:26:00,
2013-08-26 20:27:00,78.3,72.4,30.01,SW,215,2.3,5.8,82,0.00,,,0.00,0.00,VWS V14.01,2013-08-27 01:27:00,
2013-08-26 20:30:00,78.2,72.3,30.01,SW,215,1.1,5.8,82,0.00,,,0.00,0.00,VWS V14.01,2013-08-27 01:30:00,
2013-08-26 20:31:00,78.2,72.3,30.01,SW,215,1.1,4.6,82,0.00,,,0.00,0.00,VWS V14.01,2013-08-27 01:31:00,
2013-08-26 20:32:00,78.2,72.3,30.01,SW,215,1.1,4.6,82,0.00,,,0.00,0.00,VWS V14.01,2013-08-27 01:32:00,
2013-08-26 20:33:00,78.2,71.9,30.01,SW,215,2.3,4.6,81,0.00,,,0.00,0.00,VWS V14.01,2013-08-27 01:33:00,
2013-08-26 20:35:00,78.2,71.9,30.01,SW,215,0.0,0.0,81,0.00,,,0.00,0.00,VWS V14.01,2013-08-27 01:35:00,
2013-08-26 20:36:00,78.2,71.9,30.01,SW,215,2.3,3.4,81,0.00,,,0.00,0.00,VWS V14.01,2013-08-27 01:36:00,
2013-08-26 20:38:00,78.0,72.1,30.01,SW,215,3.4,4.6,82,0.00,,,0.00,0.00,VWS V14.01,2013-08-27 01:38:00,
2013-08-26 20:39:00,78.0,72.1,30.01,SW,214,2.3,5.8,82,0.00,,,0.00,0.00,VWS V14.01,2013-08-27 01:39:00,
2013-08-26 20:40:00,77.9,72.0,30.01,SW,217,4.6,4.6,82,0.00,,,0.00,0.00,VWS V14.01,2013-08-27 01:40:00,
2013-08-26 20:41:00,77.9,72.0,30.01,SW,217,0.0,4.6,82,0.00,,,0.00,0.00,VWS V14.01,2013-08-27 01:41:00,
2013-08-26 20:44:00,77.8,71.9,30.01,SW,217,2.3,4.6,82,0.00,,,0.00,0.00,VWS V14.01,2013-08-27 01:44:00,
2013-08-26 20:47:00,77.7,71.8,30.01,SW,216,2.3,4.6,82,0.00,,,0.00,0.00,VWS V14.01,2013-08-27 01:47:00,
2013-08-26 20:48:00,77.7,71.8,30.01,SW,216,3.4,4.6,82,0.00,,,0.00,0.00,VWS V14.01,2013-08-27 01:48:00,
2013-08-26 20:49:00,77.8,71.9,30.01,SW,216,1.1,4.6,82,0.00,,,0.00,0.00,VWS V14.01,2013-08-27 01:49:00,
2013-08-26 20:50:00,77.8,71.5,30.01,SW,216,3.4,4.6,81,0.00,,,0.00,0.00,VWS V14.01,2013-08-27 01:50:00,
2013-08-26 20:53:00,77.8,71.5,30.01,SW,215,3.4,5.8,81,0.00,,,0.00,0.00,VWS V14.01,2013-08-27 01:53:00,
2013-08-26 20:54:00,77.8,71.5,30.01,SSW,213,2.3,5.8,81,0.00,,,0.00,0.00,VWS V14.01,2013-08-27 01:54:00,
2013-08-26 20:55:00,77.7,71.4,30.01,South,171,4.6,5.8,81,0.00,,,0.00,0.00,VWS V14.01,2013-08-27 01:55:00,
2013-08-26 20:57:00,77.6,71.7,30.01,SSW,203,1.1,4.6,82,0.00,,,0.00,0.00,VWS V14.01,2013-08-27 01:57:00,
2013-08-26 20:58:00,77.6,71.7,30.01,SSW,211,4.6,4.6,82,0.00,,,0.00,0.00,VWS V14.01,2013-08-27 01:58:00,
2013-08-26 20:59:00,77.6,71.7,30.01,SSW,207,3.4,4.6,82,0.00,,,0.00,0.00,VWS V14.01,2013-08-27 01:59:00,
2013-08-26 21:01:00,77.5,71.6,30.01,SSW,204,0.0,2.3,82,0.00,,,0.00,0.00,VWS V14.01,2013-08-27 02:01:00,
2013-08-26 21:03:00,77.5,71.6,30.02,SSW,209,4.6,4.6,82,0.00,,,0.00,0.00,VWS V14.01,2013-08-27 02:03:00,
2013-08-26 21:04:00,77.5,71.2,30.02,SSW,211,0.0,4.6,81,0.00,,,0.00,0.00,VWS V14.01,2013-08-27 02:04:00,
2013-08-26 21:05:00,77.5,71.6,30.02,SSW,211,0.0,4.6,82,0.00,,,0.00,0.00,VWS V14.01,2013-08-27 02:05:00,
2013-08-26 21:06:00,77.5,71.6,30.02,SSW,211,4.6,4.6,82,0.00,,,0.00,0.00,VWS V14.01,2013-08-27 02:06:00,
2013-08-26 21:08:00,77.4,71.5,30.02,SW,216,2.3,5.8,82,0.00,,,0.00,0.00,VWS V14.01,2013-08-27 02:08:00,
2013-08-26 21:10:00,77.4,71.1,30.02,SSW,210,0.0,5.8,81,0.00,,,0.00,0.00,VWS V14.01,2013-08-27 02:10:00,
2013-08-26 21:11:00,77.4,71.5,30.02,SSW,212,0.0,2.3,82,0.00,,,0.00,0.00,VWS V14.01,2013-08-27 02:11:00,
2013-08-26 21:12:00,77.3,71.4,30.02,SSW,213,1.1,3.4,82,0.00,,,0.00,0.00,VWS V14.01,2013-08-27 02:12:00,
2013-08-26 21:14:00,77.4,71.5,30.02,SSW,210,0.0,3.4,82,0.00,,,0.00,0.00,VWS V14.01,2013-08-27 02:14:00,
2013-08-26 21:15:00,77.5,71.2,30.02,SSW,209,0.0,1.1,81,0.00,,,0.00,0.00,VWS V14.01,2013-08-27 02:15:00,
2013-08-26 21:16:00,77.5,71.2,30.02,SSW,209,1.1,2.3,81,0.00,,,0.00,0.00,VWS V14.01,2013-08-27 02:16:00,
2013-08-26 21:17:00,77.5,71.2,30.02,SSW,209,1.1,2.3,81,0.00,,,0.00,0.00,VWS V14.01,2013-08-27 02:17:00,
2013-08-26 21:19:00,77.5,71.2,30.02,SSW,205,0.0,5.8,81,0.00,,,0.00,0.00,VWS V14.01,2013-08-27 02:19:00,
2013-08-26 21:21:00,77.4,71.1,30.02,SSW,213,0.0,2.3,81,0.00,,,0.00,0.00,VWS V14.01,2013-08-27 02:21:00,
2013-08-26 21:22:00,77.3,71.0,30.02,SSW,213,1.1,3.4,81,0.00,,,0.00,0.00,VWS V14.01,2013-08-27 02:22:00,
2013-08-26 21:25:00,77.3,71.4,30.02,SSW,213,2.3,2.3,82,0.00,,,0.00,0.00,VWS V14.01,2013-08-27 02:25:00,
2013-08-26 21:26:00,77.3,71.4,30.02,SSW,213,2.3,2.3,82,0.00,,,0.00,0.00,VWS V14.01,2013-08-27 02:26:00,
2013-08-26 21:27:00,77.2,71.3,30.02,SSW,213,0.0,2.3,82,0.00,,,0.00,0.00,VWS V14.01,2013-08-27 02:27:00,
2013-08-26 21:28:00,77.2,71.3,30.02,SSW,212,3.4,4.6,82,0.00,,,0.00,0.00,VWS V14.01,2013-08-27 02:28:00,
2013-08-26 21:31:00,77.0,71.1,30.02,SW,214,0.0,0.0,82,0.00,,,0.00,0.00,VWS V14.01,2013-08-27 02:31:00,
2013-08-26 21:32:00,76.9,71.0,30.02,SW,214,2.3,3.4,82,0.00,,,0.00,0.00,VWS V14.01,2013-08-27 02:32:00,
2013-08-26 21:33:00,76.9,71.0,30.02,SSW,213,5.8,5.8,82,0.00,,,0.00,0.00,VWS V14.01,2013-08-27 02:33:00,
2013-08-26 21:36:00,76.8,70.9,30.02,SW,214,0.0,0.0,82,0.00,,,0.00,0.00,VWS V14.01,2013-08-27 02:36:00,
2013-08-26 21:37:00,76.7,70.8,30.02,SW,214,0.0,5.8,82,0.00,,,0.00,0.00,VWS V14.01,2013-08-27 02:37:00,
2013-08-26 21:38:00,76.7,70.8,30.02,SW,214,0.0,5.8,82,0.00,,,0.00,0.00,VWS V14.01,2013-08-27 02:38:00,
2013-08-26 21:40:00,76.6,71.1,30.02,SW,214,1.1,5.8,83,0.00,,,0.00,0.00,VWS V14.01,2013-08-27 02:40:00,
2013-08-26 21:41:00,76.5,71.0,30.02,SW,214,1.1,2.3,83,0.00,,,0.00,0.00,VWS V14.01,2013-08-27 02:41:00,
2013-08-26 21:42:00,76.5,71.0,30.02,SW,214,1.1,2.3,83,0.00,,,0.00,0.00,VWS V14.01,2013-08-27 02:42:00,
2013-08-26 21:43:00,76.4,70.9,30.02,SW,214,0.0,2.3,83,0.00,,,0.00,0.00,VWS V14.01,2013-08-27 02:43:00,
2013-08-26 21:44:00,76.4,70.9,30.02,SW,214,0.0,2.3,83,0.00,,,0.00,0.00,VWS V14.01,2013-08-27 02:44:00,
2013-08-26 21:45:00,76.4,70.9,30.02,SW,214,0.0,2.3,83,0.00,,,0.00,0.00,VWS V14.01,2013-08-27 02:45:00,
2013-08-26 21:46:00,76.2,70.7,30.02,SW,214,1.1,3.4,83,0.00,,,0.00,0.00,VWS V14.01,2013-08-27 02:46:00,
2013-08-26 21:47:00,76.1,70.6,30.02,SW,214,1.1,3.4,83,0.00,,,0.00,0.00,VWS V14.01,2013-08-27 02:47:00,
2013-08-26 21:48:00,76.1,70.6,30.02,SW,214,1.1,3.4,83,0.00,,,0.00,0.00,VWS V14.01,2013-08-27 02:48:00,
2013-08-26 21:50:00,76.0,70.8,30.02,SW,214,1.1,3.4,84,0.00,,,0.00,0.00,VWS V14.01,2013-08-27 02:50:00,
2013-08-26 21:52:00,75.9,70.7,30.03,SW,214,0.0,1.1,84,0.00,,,0.00,0.00,VWS V14.01,2013-08-27 02:52:00,
2013-08-26 21:54:00,75.8,70.6,30.03,SW,214,0.0,1.1,84,0.00,,,0.00,0.00,VWS V14.01,2013-08-27 02:54:00,
2013-08-26 21:55:00,75.8,70.6,30.03,SW,214,1.1,1.1,84,0.00,,,0.00,0.00,VWS V14.01,2013-08-27 02:55:00,
2013-08-26 21:57:00,75.8,70.6,30.03,SW,214,0.0,1.1,84,0.00,,,0.00,0.00,VWS V14.01,2013-08-27 02:57:00,
2013-08-26 21:58:00,75.8,70.6,30.03,SW,214,0.0,1.1,84,0.00,,,0.00,0.00,VWS V14.01,2013-08-27 02:58:00,
2013-08-26 21:59:00,75.7,70.5,30.03,SW,214,0.0,1.1,84,0.00,,,0.00,0.00,VWS V14.01,2013-08-27 02:59:00,
2013-08-26 22:00:00,75.7,70.5,30.03,SW,214,0.0,1.1,84,0.00,,,0.00,0.00,VWS V14.01,2013-08-27 03:00:00,
2013-08-26 22:02:00,75.6,70.8,30.03,SW,214,1.1,3.4,85,0.00,,,0.00,0.00,VWS V14.01,2013-08-27 03:02:00,
2013-08-26 22:03:00,75.6,70.4,30.03,SW,214,2.3,3.4,84,0.00,,,0.00,0.00,VWS V14.01,2013-08-27 03:03:00,
2013-08-26 22:04:00,75.6,70.8,30.03,SW,214,0.0,3.4,85,0.00,,,0.00,0.00,VWS V14.01,2013-08-27 03:04:00,
2013-08-26 22:05:00,75.7,70.5,30.03,SW,214,0.0,3.4,84,0.00,,,0.00,0.00,VWS V14.01,2013-08-27 03:05:00,
2013-08-26 22:08:00,75.6,70.4,30.03,SW,214,3.4,3.4,84,0.00,,,0.00,0.00,VWS V14.01,2013-08-27 03:08:00,
2013-08-26 22:09:00,75.6,70.4,30.03,SW,214,1.1,3.4,84,0.00,,,0.00,0.00,VWS V14.01,2013-08-27 03:09:00,
2013-08-26 22:10:00,75.6,70.4,30.03,SW,214,0.0,3.4,84,0.00,,,0.00,0.00,VWS V14.01,2013-08-27 03:10:00,
2013-08-26 22:11:00,75.6,70.4,30.03,SW,214,1.1,1.1,84,0.00,,,0.00,0.00,VWS V14.01,2013-08-27 03:11:00,
2013-08-26 22:13:00,75.5,70.3,30.02,SW,214,0.0,1.1,84,0.00,,,0.00,0.00,VWS V14.01,2013-08-27 03:13:00,
2013-08-26 22:15:00,75.3,70.1,30.02,SW,214,0.0,3.4,84,0.00,,,0.00,0.00,VWS V14.01,2013-08-27 03:15:00,
2013-08-26 22:17:00,75.2,70.4,30.02,SW,214,0.0,3.4,85,0.00,,,0.00,0.00,VWS V14.01,2013-08-27 03:17:00,
2013-08-26 22:18:00,75.1,70.3,30.02,SW,214,0.0,3.4,85,0.00,,,0.00,0.00,VWS V14.01,2013-08-27 03:18:00,
2013-08-26 22:20:00,74.9,70.1,30.03,SW,214,0.0,3.4,85,0.00,,,0.00,0.00,VWS V14.01,2013-08-27 03:20:00,
2013-08-26 22:22:00,74.8,70.3,30.03,SW,214,0.0,1.1,86,0.00,,,0.00,0.00,VWS V14.01,2013-08-27 03:22:00,
2013-08-26 22:23:00,74.7,70.2,30.03,SW,214,1.1,1.1,86,0.00,,,0.00,0.00,VWS V14.01,2013-08-27 03:23:00,
2013-08-26 22:25:00,74.6,70.1,30.03,SW,214,0.0,1.1,86,0.00,,,0.00,0.00,VWS V14.01,2013-08-27 03:25:00,
2013-08-26 22:27:00,74.4,69.9,30.03,SW,214,0.0,1.1,86,0.00,,,0.00,0.00,VWS V14.01,2013-08-27 03:27:00,
2013-08-26 22:28:00,74.3,69.8,30.03,SW,214,1.1,3.4,86,0.00,,,0.00,0.00,VWS V14.01,2013-08-27 03:28:00,
2013-08-26 22:30:00,74.3,69.8,30.03,SW,214,0.0,3.4,86,0.00,,,0.00,0.00,VWS V14.01,2013-08-27 03:30:00,
2013-08-26 22:31:00,74.3,70.2,30.03,SW,214,1.1,1.1,87,0.00,,,0.00,0.00,VWS V14.01,2013-08-27 03:31:00,
2013-08-26 22:33:00,74.3,69.8,30.03,SW,214,1.1,2.3,86,0.00,,,0.00,0.00,VWS V14.01,2013-08-27 03:33:00,
2013-08-26 22:34:00,74.2,70.1,30.03,SW,214,0.0,3.4,87,0.00,,,0.00,0.00,VWS V14.01,2013-08-27 03:34:00,
2013-08-26 22:36:00,74.3,70.2,30.03,SW,214,2.3,2.3,87,0.00,,,0.00,0.00,VWS V14.01,2013-08-27 03:36:00,
2013-08-26 22:38:00,74.2,70.1,30.03,SW,214,0.0,3.4,87,0.00,,,0.00,0.00,VWS V14.01,2013-08-27 03:38:00,
2013-08-26 22:39:00,74.3,70.2,30.03,SW,214,2.3,4.6,87,0.00,,,0.00,0.00,VWS V14.01,2013-08-27 03:39:00,
2013-08-26 22:42:00,74.5,70.0,30.02,SW,214,2.3,4.6,86,0.00,,,0.00,0.00,VWS V14.01,2013-08-27 03:42:00,
2013-08-26 22:43:00,74.5,70.0,30.02,SW,214,1.1,4.6,86,0.00,,,0.00,0.00,VWS V14.01,2013-08-27 03:43:00,
2013-08-26 22:45:00,74.5,70.0,30.02,SW,214,2.3,4.6,86,0.00,,,0.00,0.00,VWS V14.01,2013-08-27 03:45:00,
2013-08-26 22:48:00,74.5,70.0,30.03,SW,214,1.1,3.4,86,0.00,,,0.00,0.00,VWS V14.01,2013-08-27 03:48:00,
2013-08-26 22:49:00,74.4,69.9,30.03,SW,214,0.0,3.4,86,0.00,,,0.00,0.00,VWS V14.01,2013-08-27 03:49:00,
2013-08-26 22:50:00,74.4,69.9,30.03,SW,214,2.3,3.4,86,0.00,,,0.00,0.00,VWS V14.01,2013-08-27 03:50:00,
2013-08-26 22:53:00,74.2,70.1,30.03,SW,214,0.0,3.4,87,0.00,,,0.00,0.00,VWS V14.01,2013-08-27 03:53:00,
2013-08-26 22:54:00,74.1,70.0,30.03,SW,214,0.0,3.4,87,0.00,,,0.00,0.00,VWS V14.01,2013-08-27 03:54:00,
2013-08-26 22:55:00,74.1,70.0,30.02,SW,214,1.1,3.4,87,0.00,,,0.00,0.00,VWS V14.01,2013-08-27 03:55:00,
2013-08-26 22:56:00,74.0,69.9,30.02,SW,214,0.0,3.4,87,0.00,,,0.00,0.00,VWS V14.01,2013-08-27 03:56:00,
2013-08-26 22:58:00,73.9,69.8,30.02,SW,214,4.6,4.6,87,0.00,,,0.00,0.00,VWS V14.01,2013-08-27 03:58:00,
2013-08-26 22:59:00,73.9,69.8,30.03,SW,214,4.6,4.6,87,0.00,,,0.00,0.00,VWS V14.01,2013-08-27 03:59:00,
2013-08-26 23:00:00,74.0,69.9,30.03,SW,214,2.3,4.6,87,0.00,,,0.00,0.00,VWS V14.01,2013-08-27 04:00:00,
2013-08-26 23:01:00,74.0,69.9,30.03,SW,214,1.1,2.3,87,0.00,,,0.00,0.00,VWS V14.01,2013-08-27 04:01:00,
2013-08-26 23:02:00,74.0,69.9,30.03,SW,214,0.0,2.3,87,0.00,,,0.00,0.00,VWS V14.01,2013-08-27 04:02:00,
2013-08-26 23:06:00,74.1,70.0,30.02,SW,214,1.1,3.4,87,0.00,,,0.00,0.00,VWS V14.01,2013-08-27 04:06:00,
2013-08-26 23:07:00,74.1,70.0,30.02,SSW,213,3.4,4.6,87,0.00,,,0.00,0.00,VWS V14.01,2013-08-27 04:07:00,
2013-08-26 23:10:00,74.3,70.2,30.02,SW,214,0.0,0.0,87,0.00,,,0.00,0.00,VWS V14.01,2013-08-27 04:10:00,
2013-08-26 23:11:00,74.4,69.9,30.02,SSW,213,1.1,4.6,86,0.00,,,0.00,0.00,VWS V14.01,2013-08-27 04:11:00,
2013-08-26 23:12:00,74.4,69.9,30.02,SSW,213,0.0,4.6,86,0.00,,,0.00,0.00,VWS V14.01,2013-08-27 04:12:00,
2013-08-26 23:13:00,74.4,69.9,30.02,SSW,213,0.0,4.6,86,0.00,,,0.00,0.00,VWS V14.01,2013-08-27 04:13:00,
2013-08-26 23:17:00,74.4,69.9,30.02,SW,214,1.1,5.8,86,0.00,,,0.00,0.00,VWS V14.01,2013-08-27 04:17:00,
2013-08-26 23:18:00,74.4,69.9,30.02,SW,214,4.6,5.8,86,0.00,,,0.00,0.00,VWS V14.01,2013-08-27 04:18:00,
2013-08-26 23:20:00,74.3,69.8,30.02,SW,214,3.4,5.8,86,0.00,,,0.00,0.00,VWS V14.01,2013-08-27 04:20:00,
2013-08-26 23:23:00,74.3,69.8,30.02,SW,219,2.3,5.8,86,0.00,,,0.00,0.00,VWS V14.01,2013-08-27 04:23:00,
2013-08-26 23:24:00,74.3,69.8,30.02,SSW,213,1.1,5.8,86,0.00,,,0.00,0.00,VWS V14.01,2013-08-27 04:24:00,
2013-08-26 23:25:00,74.4,69.9,30.02,SSW,206,1.1,5.8,86,0.00,,,0.00,0.00,VWS V14.01,2013-08-27 04:25:00,
2013-08-26 23:28:00,74.6,70.1,30.02,SSW,199,2.3,4.6,86,0.00,,,0.00,0.00,VWS V14.01,2013-08-27 04:28:00,
2013-08-26 23:29:00,74.7,70.2,30.02,SSW,199,2.3,4.6,86,0.00,,,0.00,0.00,VWS V14.01,2013-08-27 04:29:00,
2013-08-26 23:30:00,74.7,70.2,30.02,SSW,197,3.4,4.6,86,0.00,,,0.00,0.00,VWS V14.01,2013-08-27 04:30:00,
2013-08-26 23:31:00,74.7,70.2,30.02,SSW,209,2.3,2.3,86,0.00,,,0.00,0.00,VWS V14.01,2013-08-27 04:31:00,
2013-08-26 23:34:00,74.6,69.8,30.02,SSW,207,4.6,6.9,85,0.00,,,0.00,0.00,VWS V14.01,2013-08-27 04:34:00,
2013-08-26 23:35:00,74.6,70.1,30.02,SSW,206,2.3,6.9,86,0.00,,,0.00,0.00,VWS V14.01,2013-08-27 04:35:00,
2013-08-26 23:36:00,74.6,70.1,30.02,South,181,1.1,8.1,86,0.00,,,0.00,0.00,VWS V14.01,2013-08-27 04:36:00,
2013-08-26 23:37:00,74.6,70.1,30.02,South,181,3.4,8.1,86,0.00,,,0.00,0.00,VWS V14.01,2013-08-27 04:37:00,
2013-08-26 23:40:00,74.4,69.9,30.02,South,182,3.4,8.1,86,0.00,,,0.00,0.00,VWS V14.01,2013-08-27 04:40:00,
2013-08-26 23:41:00,74.4,69.9,30.01,South,182,3.4,4.6,86,0.00,,,0.00,0.00,VWS V14.01,2013-08-27 04:41:00,
2013-08-26 23:42:00,74.4,69.9,30.01,South,182,2.3,4.6,86,0.00,,,0.00,0.00,VWS V14.01,2013-08-27 04:42:00,
2013-08-26 23:43:00,74.4,69.9,30.02,South,182,0.0,4.6,86,0.00,,,0.00,0.00,VWS V14.01,2013-08-27 04:43:00,
2013-08-26 23:45:00,74.3,69.8,30.02,South,182,2.3,4.6,86,0.00,,,0.00,0.00,VWS V14.01,2013-08-27 04:45:00,
2013-08-26 23:47:00,74.2,69.8,30.02,South,182,2.3,5.8,86,0.00,,,0.00,0.00,VWS V14.01,2013-08-27 04:47:00,
2013-08-26 23:49:00,74.2,69.8,30.02,South,182,3.4,5.8,86,0.00,,,0.00,0.00,VWS V14.01,2013-08-27 04:49:00,
2013-08-26 23:50:00,74.2,69.8,30.02,SSW,200,4.6,4.6,86,0.00,,,0.00,0.00,VWS V14.01,2013-08-27 04:50:00,
2013-08-26 23:51:00,74.2,69.8,30.02,SSW,202,4.6,5.8,86,0.00,,,0.00,0.00,VWS V14.01,2013-08-27 04:51:00,
2013-08-26 23:52:00,74.2,69.8,30.02,SSW,204,2.3,5.8,86,0.00,,,0.00,0.00,VWS V14.01,2013-08-27 04:52:00,
2013-08-26 23:54:00,74.2,70.1,30.02,SSW,193,8.1,8.1,87,0.00,,,0.00,0.00,VWS V14.01,2013-08-27 04:54:00,
2013-08-26 23:56:00,74.4,69.9,30.02,SSW,202,3.4,4.6,86,0.00,,,0.00,0.00,VWS V14.01,2013-08-27 04:56:00,
2013-08-26 23:57:00,74.4,69.9,30.02,SSW,202,1.1,4.6,86,0.00,,,0.00,0.00,VWS V14.01,2013-08-27 04:57:00,
2013-08-26 23:58:00,74.4,69.9,30.02,SSW,202,2.3,4.6,86,0.00,,,0.00,0.00,VWS V14.01,2013-08-27 04:58:00,
2013-08-26 23:59:00,74.4,69.9,30.02,SSW,202,1.1,4.6,86,0.00,,,0.00,0.00,VWS V14.01,2013-08-27 04:59:00,